Time,TemperatureF,DewpointF,PressureIn,WindDirection,WindDirectionDegrees,WindSpeedMPH,WindSpeedGustMPH,Humidity,HourlyPrecipIn,Conditions,Clouds,dailyrainin,SoftwareType,DateUTC
2013-04-16 00:00:00,41.5,36.7,30.36,WSW,247,0.0,1.0,83,0.00,,SKC,0.00,VWS V14.01,2013-04-16 04:00:00,
2013-04-16 00:05:00,41.5,37.0,30.36,WSW,244,0.0,0.0,84,0.00,,SKC,0.00,VWS V14.01,2013-04-16 04:05:00,
2013-04-16 00:06:00,41.5,37.0,30.36,WSW,250,0.0,0.0,84,0.00,,SKC,0.00,VWS V14.01,2013-04-16 04:06:00,
2013-04-16 00:10:00,41.5,37.0,30.36,WSW,251,0.0,0.0,84,0.00,,SKC,0.00,VWS V14.01,2013-04-16 04:10:00,
2013-04-16 00:11:00,41.5,37.0,30.36,WSW,251,0.0,0.0,84,0.00,,SKC,0.00,VWS V14.01,2013-04-16 04:11:00,
2013-04-16 00:12:00,41.3,36.8,30.36,WSW,250,0.0,0.0,84,0.00,,SKC,0.00,VWS V14.01,2013-04-16 04:12:00,
2013-04-16 00:15:00,41.3,36.8,30.36,WSW,250,0.0,0.0,84,0.00,,SKC,0.00,VWS V14.01,2013-04-16 04:15:00,
2013-04-16 00:16:00,41.3,36.8,30.36,WSW,251,0.0,0.0,84,0.00,,SKC,0.00,VWS V14.01,2013-04-16 04:16:00,
2013-04-16 00:18:00,41.3,37.1,30.36,WSW,247,0.0,0.0,85,0.00,,SKC,0.00,VWS V14.01,2013-04-16 04:18:00,
2013-04-16 00:20:00,41.3,37.1,30.36,WSW,247,0.0,0.0,85,0.00,,SKC,0.00,VWS V14.01,2013-04-16 04:20:00,
2013-04-16 00:21:00,41.3,37.1,30.36,WSW,247,0.0,0.0,85,0.00,,SKC,0.00,VWS V14.01,2013-04-16 04:21:00,
2013-04-16 00:23:00,41.3,37.1,30.36,WSW,247,0.0,0.0,85,0.00,,SKC,0.00,VWS V14.01,2013-04-16 04:23:00,
2013-04-16 00:25:00,41.9,36.5,30.35,WSW,250,0.0,1.0,81,0.00,,SKC,0.00,VWS V14.01,2013-04-16 04:25:00,
2013-04-16 00:26:00,41.3,37.1,30.36,WSW,246,0.0,0.0,85,0.00,,SKC,0.00,VWS V14.01,2013-04-16 04:26:00,
2013-04-16 00:27:00,41.3,37.1,30.36,WSW,250,0.0,0.0,85,0.00,,SKC,0.00,VWS V14.01,2013-04-16 04:27:00,
2013-04-16 00:29:00,41.3,37.1,30.36,WSW,250,0.0,0.0,85,0.00,,SKC,0.00,VWS V14.01,2013-04-16 04:29:00,
2013-04-16 00:30:00,41.8,36.4,30.36,WSW,250,0.0,0.0,81,0.00,,SKC,0.00,VWS V14.01,2013-04-16 04:30:00,
2013-04-16 00:31:00,41.2,37.0,30.36,WSW,248,0.0,0.0,85,0.00,,SKC,0.00,VWS V14.01,2013-04-16 04:31:00,
2013-04-16 00:32:00,41.2,37.0,30.36,WSW,248,0.0,0.0,85,0.00,,SKC,0.00,VWS V14.01,2013-04-16 04:32:00,
2013-04-16 00:34:00,41.2,37.0,30.36,WSW,248,0.0,0.0,85,0.00,,SKC,0.00,VWS V14.01,2013-04-16 04:34:00,
2013-04-16 00:35:00,41.8,36.7,30.36,WSW,247,0.0,0.0,82,0.00,,SKC,0.00,VWS V14.01,2013-04-16 04:35:00,
2013-04-16 00:37:00,41.3,37.1,30.36,WSW,250,0.0,0.0,85,0.00,,SKC,0.00,VWS V14.01,2013-04-16 04:37:00,
2013-04-16 00:38:00,41.3,37.1,30.36,WSW,250,0.0,0.0,85,0.00,,SKC,0.00,VWS V14.01,2013-04-16 04:38:00,
2013-04-16 00:40:00,41.2,37.0,30.36,WSW,250,0.0,0.0,85,0.00,,SKC,0.00,VWS V14.01,2013-04-16 04:40:00,
2013-04-16 00:42:00,41.2,37.3,30.36,WSW,250,0.0,0.0,86,0.00,,SKC,0.00,VWS V14.01,2013-04-16 04:42:00,
2013-04-16 00:43:00,41.2,37.3,30.36,WSW,250,0.0,0.0,86,0.00,,SKC,0.00,VWS V14.01,2013-04-16 04:43:00,
2013-04-16 00:45:00,41.2,37.3,30.36,WSW,250,0.0,0.0,86,0.00,,SKC,0.00,VWS V14.01,2013-04-16 04:45:00,
2013-04-16 00:47:00,41.2,37.3,30.36,WSW,248,0.0,0.0,86,0.00,,SKC,0.00,VWS V14.01,2013-04-16 04:47:00,
2013-04-16 00:48:00,41.2,37.3,30.36,WSW,248,0.0,0.0,86,0.00,,SKC,0.00,VWS V14.01,2013-04-16 04:48:00,
2013-04-16 00:49:00,41.2,37.3,30.36,WSW,250,0.0,0.0,86,0.00,,SKC,0.00,VWS V14.01,2013-04-16 04:49:00,
2013-04-16 00:50:00,41.5,36.4,30.36,WSW,251,0.0,0.0,82,0.00,,SKC,0.00,VWS V14.01,2013-04-16 04:50:00,
2013-04-16 00:51:00,41.2,37.3,30.36,WSW,248,0.0,0.0,86,0.00,,SKC,0.00,VWS V14.01,2013-04-16 04:51:00,
2013-04-16 00:53:00,41.2,37.3,30.36,WSW,250,0.0,0.0,86,0.00,,SKC,0.00,VWS V14.01,2013-04-16 04:53:00,
2013-04-16 00:54:00,41.2,37.3,30.36,WSW,250,0.0,0.0,86,0.00,,SKC,0.00,VWS V14.01,2013-04-16 04:54:00,
2013-04-16 00:55:00,41.2,37.3,30.36,WSW,248,0.0,0.0,86,0.00,,SKC,0.00,VWS V14.01,2013-04-16 04:55:00,
2013-04-16 00:56:00,41.2,37.3,30.36,WSW,250,0.0,0.0,86,0.00,,SKC,0.00,VWS V14.01,2013-04-16 04:56:00,
2013-04-16 00:59:00,41.1,37.2,30.36,WSW,247,0.0,0.0,86,0.00,,SKC,0.00,VWS V14.01,2013-04-16 04:59:00,
2013-04-16 01:00:00,41.1,37.2,30.36,WSW,250,0.0,0.0,86,0.00,,SKC,0.00,VWS V14.01,2013-04-16 05:00:00,
2013-04-16 01:01:00,41.1,37.2,30.36,WSW,248,0.0,0.0,86,0.00,,SKC,0.00,VWS V14.01,2013-04-16 05:01:00,
2013-04-16 01:04:00,41.1,37.5,30.36,WSW,248,0.0,0.0,87,0.00,,SKC,0.00,VWS V14.01,2013-04-16 05:04:00,
2013-04-16 01:05:00,41.1,37.5,30.36,WSW,248,0.0,0.0,87,0.00,,SKC,0.00,VWS V14.01,2013-04-16 05:05:00,
2013-04-16 01:06:00,41.1,37.5,30.36,WSW,250,0.0,0.0,87,0.00,,SKC,0.00,VWS V14.01,2013-04-16 05:06:00,
2013-04-16 01:09:00,40.9,37.3,30.36,WSW,248,0.0,0.0,87,0.00,,SKC,0.00,VWS V14.01,2013-04-16 05:09:00,
2013-04-16 01:10:00,40.9,37.3,30.36,WSW,248,0.0,0.0,87,0.00,,SKC,0.00,VWS V14.01,2013-04-16 05:10:00,
2013-04-16 01:11:00,40.9,37.3,30.36,WSW,247,0.0,0.0,87,0.00,,SKC,0.00,VWS V14.01,2013-04-16 05:11:00,
2013-04-16 01:14:00,40.9,37.3,30.36,WSW,246,0.0,0.0,87,0.00,,SKC,0.00,VWS V14.01,2013-04-16 05:14:00,
2013-04-16 01:15:00,40.9,37.3,30.36,WSW,250,0.0,0.0,87,0.00,,SKC,0.00,VWS V14.01,2013-04-16 05:15:00,
2013-04-16 01:16:00,40.9,37.3,30.36,WSW,250,0.0,0.0,87,0.00,,SKC,0.00,VWS V14.01,2013-04-16 05:16:00,
2013-04-16 01:17:00,40.9,37.3,30.36,WSW,248,0.0,0.0,87,0.00,,SKC,0.00,VWS V14.01,2013-04-16 05:17:00,
2013-04-16 01:20:00,40.9,37.3,30.36,WSW,248,0.0,0.0,87,0.00,,SKC,0.00,VWS V14.01,2013-04-16 05:20:00,
2013-04-16 01:21:00,40.9,37.6,30.36,WSW,250,0.0,0.0,88,0.00,,SKC,0.00,VWS V14.01,2013-04-16 05:21:00,
2013-04-16 01:22:00,40.9,37.6,30.36,WSW,250,0.0,0.0,88,0.00,,SKC,0.00,VWS V14.01,2013-04-16 05:22:00,
2013-04-16 01:25:00,41.3,37.1,30.36,WSW,246,0.0,0.0,85,0.00,,SKC,0.00,VWS V14.01,2013-04-16 05:25:00,
2013-04-16 01:26:00,40.9,37.6,30.36,WSW,248,0.0,0.0,88,0.00,,SKC,0.00,VWS V14.01,2013-04-16 05:26:00,
2013-04-16 01:27:00,40.9,37.6,30.36,WSW,248,0.0,0.0,88,0.00,,SKC,0.00,VWS V14.01,2013-04-16 05:27:00,
2013-04-16 01:28:00,40.9,37.6,30.36,WSW,250,0.0,0.0,88,0.00,,SKC,0.00,VWS V14.01,2013-04-16 05:28:00,
2013-04-16 01:30:00,41.3,37.1,30.36,WSW,248,0.0,0.0,85,0.00,,SKC,0.00,VWS V14.01,2013-04-16 05:30:00,
2013-04-16 01:31:00,40.9,37.6,30.37,WSW,248,0.0,0.0,88,0.00,,SKC,0.00,VWS V14.01,2013-04-16 05:31:00,
2013-04-16 01:32:00,40.8,37.5,30.37,WSW,248,0.0,0.0,88,0.00,,SKC,0.00,VWS V14.01,2013-04-16 05:32:00,
2013-04-16 01:34:00,40.8,37.5,30.37,WSW,248,0.0,0.0,88,0.00,,SKC,0.00,VWS V14.01,2013-04-16 05:34:00,
2013-04-16 01:35:00,41.3,37.1,30.36,WSW,248,0.0,0.0,85,0.00,,SKC,0.00,VWS V14.01,2013-04-16 05:35:00,
2013-04-16 01:36:00,40.8,37.5,30.37,WSW,248,0.0,0.0,88,0.00,,SKC,0.00,VWS V14.01,2013-04-16 05:36:00,
2013-04-16 01:37:00,40.8,37.5,30.37,WSW,250,0.0,0.0,88,0.00,,SKC,0.00,VWS V14.01,2013-04-16 05:37:00,
2013-04-16 01:38:00,40.8,37.5,30.37,WSW,248,0.0,0.0,88,0.00,,SKC,0.00,VWS V14.01,2013-04-16 05:38:00,
2013-04-16 01:39:00,40.8,37.5,30.37,WSW,248,0.0,0.0,88,0.00,,SKC,0.00,VWS V14.01,2013-04-16 05:39:00,
2013-04-16 01:40:00,41.3,37.1,30.36,WSW,248,0.0,0.0,85,0.00,,SKC,0.00,VWS V14.01,2013-04-16 05:40:00,
2013-04-16 01:41:00,40.8,37.5,30.37,WSW,248,0.0,0.0,88,0.00,,SKC,0.00,VWS V14.01,2013-04-16 05:41:00,
2013-04-16 01:42:00,40.8,37.5,30.37,WSW,248,0.0,0.0,88,0.00,,SKC,0.00,VWS V14.01,2013-04-16 05:42:00,
2013-04-16 01:43:00,40.8,37.5,30.37,WSW,248,0.0,0.0,88,0.00,,SKC,0.00,VWS V14.01,2013-04-16 05:43:00,
2013-04-16 01:44:00,40.8,37.5,30.36,WSW,247,0.0,0.0,88,0.00,,SKC,0.00,VWS V14.01,2013-04-16 05:44:00,
2013-04-16 01:45:00,41.2,37.3,30.36,WSW,250,0.0,0.0,86,0.00,,SKC,0.00,VWS V14.01,2013-04-16 05:45:00,
2013-04-16 01:46:00,40.8,37.8,30.36,WSW,248,0.0,0.0,89,0.00,,SKC,0.00,VWS V14.01,2013-04-16 05:46:00,
2013-04-16 01:47:00,40.8,37.8,30.36,WSW,248,0.0,0.0,89,0.00,,SKC,0.00,VWS V14.01,2013-04-16 05:47:00,
2013-04-16 01:49:00,40.8,37.8,30.36,WSW,243,0.0,0.0,89,0.00,,SKC,0.00,VWS V14.01,2013-04-16 05:49:00,
2013-04-16 01:50:00,41.2,37.3,30.36,WSW,248,0.0,0.0,86,0.00,,SKC,0.00,VWS V14.01,2013-04-16 05:50:00,
2013-04-16 01:51:00,40.6,37.6,30.36,WSW,246,0.0,0.0,89,0.00,,SKC,0.00,VWS V14.01,2013-04-16 05:51:00,
2013-04-16 01:52:00,40.6,37.6,30.36,WSW,244,0.0,0.0,89,0.00,,SKC,0.00,VWS V14.01,2013-04-16 05:52:00,
2013-04-16 01:53:00,40.6,37.6,30.36,WSW,246,0.0,0.0,89,0.00,,SKC,0.00,VWS V14.01,2013-04-16 05:53:00,
2013-04-16 01:54:00,40.6,37.6,30.36,WSW,246,0.0,0.0,89,0.00,,SKC,0.00,VWS V14.01,2013-04-16 05:54:00,
2013-04-16 01:55:00,40.6,37.6,30.36,WSW,246,0.0,0.0,89,0.00,,SKC,0.00,VWS V14.01,2013-04-16 05:55:00,
2013-04-16 01:57:00,40.6,37.6,30.36,WSW,243,0.0,0.0,89,0.00,,SKC,0.00,VWS V14.01,2013-04-16 05:57:00,
2013-04-16 01:58:00,40.6,37.6,30.36,WSW,241,0.0,0.0,89,0.00,,SKC,0.00,VWS V14.01,2013-04-16 05:58:00,
2013-04-16 01:59:00,40.6,37.6,30.36,WSW,243,0.0,0.0,89,0.00,,SKC,0.00,VWS V14.01,2013-04-16 05:59:00,
2013-04-16 02:00:00,40.6,37.6,30.36,WSW,243,0.0,0.0,89,0.00,,SKC,0.00,VWS V14.01,2013-04-16 06:00:00,
2013-04-16 02:02:00,40.6,37.6,30.36,WSW,241,0.0,0.0,89,0.00,,SKC,0.00,VWS V14.01,2013-04-16 06:02:00,
2013-04-16 02:04:00,40.5,37.5,30.36,WSW,241,0.0,0.0,89,0.00,,SKC,0.00,VWS V14.01,2013-04-16 06:04:00,
2013-04-16 02:05:00,40.5,37.5,30.36,WSW,241,0.0,0.0,89,0.00,,SKC,0.00,VWS V14.01,2013-04-16 06:05:00,
2013-04-16 02:07:00,40.3,37.3,30.36,WSW,243,0.0,0.0,89,0.00,,SKC,0.00,VWS V14.01,2013-04-16 06:07:00,
2013-04-16 02:09:00,40.3,37.3,30.36,WSW,247,0.0,0.0,89,0.00,,SKC,0.00,VWS V14.01,2013-04-16 06:09:00,
2013-04-16 02:10:00,40.2,37.2,30.36,WSW,246,0.0,0.0,89,0.00,,SKC,0.00,VWS V14.01,2013-04-16 06:10:00,
2013-04-16 02:11:00,40.2,37.2,30.36,WSW,247,0.0,0.0,89,0.00,,SKC,0.00,VWS V14.01,2013-04-16 06:11:00,
2013-04-16 02:12:00,40.1,37.1,30.36,WSW,243,0.0,0.0,89,0.00,,SKC,0.00,VWS V14.01,2013-04-16 06:12:00,
2013-04-16 02:14:00,40.1,37.1,30.36,WSW,244,0.0,0.0,89,0.00,,SKC,0.00,VWS V14.01,2013-04-16 06:14:00,
2013-04-16 02:15:00,40.9,37.3,30.36,WSW,246,0.0,0.0,87,0.00,,SKC,0.00,VWS V14.01,2013-04-16 06:15:00,
2013-04-16 02:16:00,39.9,36.9,30.35,WSW,244,0.0,0.0,89,0.00,,SKC,0.00,VWS V14.01,2013-04-16 06:16:00,
2013-04-16 02:18:00,39.8,36.8,30.35,WSW,243,0.0,0.0,89,0.00,,SKC,0.00,VWS V14.01,2013-04-16 06:18:00,
2013-04-16 02:19:00,39.6,36.6,30.35,WSW,241,0.0,0.0,89,0.00,,SKC,0.00,VWS V14.01,2013-04-16 06:19:00,
2013-04-16 02:20:00,40.9,37.3,30.36,WSW,248,0.0,0.0,87,0.00,,SKC,0.00,VWS V14.01,2013-04-16 06:20:00,
2013-04-16 02:22:00,39.6,36.6,30.35,WSW,246,0.0,0.0,89,0.00,,SKC,0.00,VWS V14.01,2013-04-16 06:22:00,
2013-04-16 02:23:00,39.6,36.6,30.35,WSW,247,0.0,0.0,89,0.00,,SKC,0.00,VWS V14.01,2013-04-16 06:23:00,
2013-04-16 02:24:00,39.5,36.5,30.35,WSW,247,0.0,0.0,89,0.00,,SKC,0.00,VWS V14.01,2013-04-16 06:24:00,
2013-04-16 02:25:00,40.9,37.6,30.36,WSW,248,0.0,0.0,88,0.00,,SKC,0.00,VWS V14.01,2013-04-16 06:25:00,
2013-04-16 02:27:00,39.5,36.5,30.35,WSW,246,0.0,0.0,89,0.00,,SKC,0.00,VWS V14.01,2013-04-16 06:27:00,
2013-04-16 02:28:00,39.3,36.3,30.35,WSW,247,0.0,0.0,89,0.00,,SKC,0.00,VWS V14.01,2013-04-16 06:28:00,
2013-04-16 02:29:00,39.3,36.3,30.35,WSW,246,0.0,0.0,89,0.00,,SKC,0.00,VWS V14.01,2013-04-16 06:29:00,
2013-04-16 02:30:00,40.9,37.6,30.37,WSW,250,0.0,0.0,88,0.00,,SKC,0.00,VWS V14.01,2013-04-16 06:30:00,
2013-04-16 02:33:00,39.2,36.2,30.35,WSW,246,0.0,0.0,89,0.00,,SKC,0.00,VWS V14.01,2013-04-16 06:33:00,
2013-04-16 02:34:00,39.2,36.2,30.35,WSW,246,0.0,0.0,89,0.00,,SKC,0.00,VWS V14.01,2013-04-16 06:34:00,
2013-04-16 02:35:00,40.8,37.5,30.37,WSW,248,0.0,0.0,88,0.00,,SKC,0.00,VWS V14.01,2013-04-16 06:35:00,
2013-04-16 02:38:00,39.1,36.1,30.35,WSW,246,0.0,0.0,89,0.00,,SKC,0.00,VWS V14.01,2013-04-16 06:38:00,
2013-04-16 02:39:00,39.1,36.1,30.35,WSW,246,0.0,0.0,89,0.00,,SKC,0.00,VWS V14.01,2013-04-16 06:39:00,
2013-04-16 02:40:00,40.8,37.5,30.37,WSW,250,0.0,0.0,88,0.00,,SKC,0.00,VWS V14.01,2013-04-16 06:40:00,
2013-04-16 02:43:00,38.9,36.2,30.35,WSW,244,0.0,0.0,90,0.00,,SKC,0.00,VWS V14.01,2013-04-16 06:43:00,
2013-04-16 02:44:00,38.9,36.2,30.35,WSW,246,0.0,0.0,90,0.00,,SKC,0.00,VWS V14.01,2013-04-16 06:44:00,
2013-04-16 02:45:00,38.9,36.2,30.35,WSW,246,0.0,0.0,90,0.00,,SKC,0.00,VWS V14.01,2013-04-16 06:45:00,
2013-04-16 02:49:00,38.8,36.1,30.35,WSW,244,0.0,0.0,90,0.00,,SKC,0.00,VWS V14.01,2013-04-16 06:49:00,
2013-04-16 02:50:00,38.8,36.1,30.35,WSW,243,0.0,0.0,90,0.00,,SKC,0.00,VWS V14.01,2013-04-16 06:50:00,
2013-04-16 02:55:00,38.6,35.9,30.35,WSW,241,0.0,0.0,90,0.00,,SKC,0.00,VWS V14.01,2013-04-16 06:55:00,
2013-04-16 03:00:00,38.3,35.6,30.36,WSW,244,0.0,0.0,90,0.00,,SKC,0.00,VWS V14.01,2013-04-16 07:00:00,
2013-04-16 03:05:00,38.2,35.5,30.36,WSW,244,0.0,0.0,90,0.00,,SKC,0.00,VWS V14.01,2013-04-16 07:05:00,
2013-04-16 03:06:00,38.2,35.5,30.36,WSW,243,0.0,0.0,90,0.00,,SKC,0.00,VWS V14.01,2013-04-16 07:06:00,
2013-04-16 03:10:00,37.9,35.2,30.36,WSW,244,0.0,0.0,90,0.00,,SKC,0.00,VWS V14.01,2013-04-16 07:10:00,
2013-04-16 03:11:00,37.9,35.2,30.36,WSW,243,0.0,0.0,90,0.00,,SKC,0.00,VWS V14.01,2013-04-16 07:11:00,
2013-04-16 03:13:00,37.9,35.2,30.36,WSW,244,0.0,0.0,90,0.00,,SKC,0.00,VWS V14.01,2013-04-16 07:13:00,
2013-04-16 03:15:00,39.9,36.9,30.35,WSW,244,0.0,0.0,89,0.00,,SKC,0.00,VWS V14.01,2013-04-16 07:15:00,
2013-04-16 03:16:00,37.9,35.2,30.36,WSW,246,0.0,0.0,90,0.00,,SKC,0.00,VWS V14.01,2013-04-16 07:16:00,
2013-04-16 03:17:00,37.8,35.1,30.36,WSW,244,0.0,0.0,90,0.00,,SKC,0.00,VWS V14.01,2013-04-16 07:17:00,
2013-04-16 03:18:00,37.8,35.1,30.36,WSW,244,0.0,0.0,90,0.00,,SKC,0.00,VWS V14.01,2013-04-16 07:18:00,
2013-04-16 03:20:00,39.6,36.6,30.35,WSW,243,0.0,0.0,89,0.00,,SKC,0.00,VWS V14.01,2013-04-16 07:20:00,
2013-04-16 03:21:00,37.6,34.9,30.36,WSW,248,0.0,0.0,90,0.00,,SKC,0.00,VWS V14.01,2013-04-16 07:21:00,
2013-04-16 03:22:00,37.6,34.9,30.36,WSW,247,0.0,0.0,90,0.00,,SKC,0.00,VWS V14.01,2013-04-16 07:22:00,
2013-04-16 03:23:00,37.6,34.9,30.36,WSW,247,0.0,0.0,90,0.00,,SKC,0.00,VWS V14.01,2013-04-16 07:23:00,
2013-04-16 03:25:00,39.5,36.5,30.35,WSW,244,0.0,0.0,89,0.00,,SKC,0.00,VWS V14.01,2013-04-16 07:25:00,
2013-04-16 03:26:00,37.5,34.8,30.36,WSW,247,0.0,0.0,90,0.00,,SKC,0.00,VWS V14.01,2013-04-16 07:26:00,
2013-04-16 03:27:00,37.5,34.8,30.36,WSW,247,0.0,0.0,90,0.00,,SKC,0.00,VWS V14.01,2013-04-16 07:27:00,
2013-04-16 03:28:00,37.5,34.8,30.36,WSW,247,0.0,0.0,90,0.00,,SKC,0.00,VWS V14.01,2013-04-16 07:28:00,
2013-04-16 03:29:00,37.5,34.8,30.36,WSW,247,0.0,0.0,90,0.00,,SKC,0.00,VWS V14.01,2013-04-16 07:29:00,
2013-04-16 03:30:00,39.3,36.3,30.35,WSW,246,0.0,0.0,89,0.00,,SKC,0.00,VWS V14.01,2013-04-16 07:30:00,
2013-04-16 03:32:00,37.3,34.6,30.36,WSW,246,0.0,0.0,90,0.00,,SKC,0.00,VWS V14.01,2013-04-16 07:32:00,
2013-04-16 03:33:00,37.3,34.6,30.36,WSW,247,0.0,0.0,90,0.00,,SKC,0.00,VWS V14.01,2013-04-16 07:33:00,
2013-04-16 03:34:00,37.3,34.6,30.36,WSW,247,0.0,0.0,90,0.00,,SKC,0.00,VWS V14.01,2013-04-16 07:34:00,
2013-04-16 03:35:00,39.2,36.2,30.35,WSW,246,0.0,0.0,89,0.00,,SKC,0.00,VWS V14.01,2013-04-16 07:35:00,
2013-04-16 03:37:00,37.2,34.5,30.36,WSW,248,0.0,0.0,90,0.00,,SKC,0.00,VWS V14.01,2013-04-16 07:37:00,
2013-04-16 03:38:00,37.2,34.5,30.36,WSW,247,0.0,0.0,90,0.00,,SKC,0.00,VWS V14.01,2013-04-16 07:38:00,
2013-04-16 03:39:00,37.2,34.5,30.36,WSW,248,0.0,0.0,90,0.00,,SKC,0.00,VWS V14.01,2013-04-16 07:39:00,
2013-04-16 03:40:00,39.1,36.1,30.35,WSW,244,0.0,0.0,89,0.00,,SKC,0.00,VWS V14.01,2013-04-16 07:40:00,
2013-04-16 03:42:00,37.0,34.3,30.36,WSW,247,0.0,0.0,90,0.00,,SKC,0.00,VWS V14.01,2013-04-16 07:42:00,
2013-04-16 03:43:00,37.0,34.3,30.36,WSW,247,0.0,0.0,90,0.00,,SKC,0.00,VWS V14.01,2013-04-16 07:43:00,
2013-04-16 03:44:00,36.9,34.2,30.36,WSW,247,0.0,0.0,90,0.00,,SKC,0.00,VWS V14.01,2013-04-16 07:44:00,
2013-04-16 03:45:00,38.9,36.2,30.35,WSW,246,0.0,0.0,90,0.00,,SKC,0.00,VWS V14.01,2013-04-16 07:45:00,
2013-04-16 03:48:00,36.9,34.5,30.36,WSW,246,0.0,0.0,91,0.00,,SKC,0.00,VWS V14.01,2013-04-16 07:48:00,
2013-04-16 03:49:00,36.9,34.5,30.36,WSW,247,0.0,0.0,91,0.00,,SKC,0.00,VWS V14.01,2013-04-16 07:49:00,
2013-04-16 03:50:00,38.8,36.1,30.35,WSW,243,0.0,0.0,90,0.00,,SKC,0.00,VWS V14.01,2013-04-16 07:50:00,
2013-04-16 03:54:00,36.8,34.4,30.36,WSW,244,0.0,0.0,91,0.00,,SKC,0.00,VWS V14.01,2013-04-16 07:54:00,
2013-04-16 03:55:00,38.6,35.9,30.35,WSW,241,0.0,0.0,90,0.00,,SKC,0.00,VWS V14.01,2013-04-16 07:55:00,
2013-04-16 03:57:00,36.6,34.2,30.36,WSW,244,0.0,0.0,91,0.00,,SKC,0.00,VWS V14.01,2013-04-16 07:57:00,
2013-04-16 03:59:00,36.6,34.2,30.36,WSW,247,0.0,0.0,91,0.00,,SKC,0.00,VWS V14.01,2013-04-16 07:59:00,
2013-04-16 04:00:00,36.5,34.1,30.37,WSW,248,0.0,0.0,91,0.00,,SKC,0.00,VWS V14.01,2013-04-16 08:00:00,
2013-04-16 04:02:00,36.5,34.1,30.37,WSW,247,0.0,0.0,91,0.00,,SKC,0.00,VWS V14.01,2013-04-16 08:02:00,
2013-04-16 04:04:00,36.5,34.1,30.37,WSW,247,0.0,0.0,91,0.00,,SKC,0.00,VWS V14.01,2013-04-16 08:04:00,
2013-04-16 04:05:00,36.5,34.1,30.37,WSW,247,0.0,0.0,91,0.00,,SKC,0.00,VWS V14.01,2013-04-16 08:05:00,
2013-04-16 04:08:00,36.5,34.1,30.37,WSW,247,0.0,0.0,91,0.00,,SKC,0.00,VWS V14.01,2013-04-16 08:08:00,
2013-04-16 04:09:00,36.5,34.1,30.37,WSW,247,0.0,0.0,91,0.00,,SKC,0.00,VWS V14.01,2013-04-16 08:09:00,
2013-04-16 04:10:00,36.3,33.9,30.37,WSW,247,0.0,0.0,91,0.00,,SKC,0.00,VWS V14.01,2013-04-16 08:10:00,
2013-04-16 04:13:00,36.3,33.9,30.37,WSW,247,0.0,0.0,91,0.00,,SKC,0.00,VWS V14.01,2013-04-16 08:13:00,
2013-04-16 04:14:00,36.3,33.9,30.37,WSW,247,0.0,0.0,91,0.00,,SKC,0.00,VWS V14.01,2013-04-16 08:14:00,
2013-04-16 04:15:00,36.3,33.9,30.36,WSW,247,0.0,0.0,91,0.00,,SKC,0.00,VWS V14.01,2013-04-16 08:15:00,
2013-04-16 04:16:00,36.2,33.8,30.36,WSW,248,0.0,0.0,91,0.00,,SKC,0.00,VWS V14.01,2013-04-16 08:16:00,
2013-04-16 04:18:00,36.2,33.8,30.36,WSW,247,0.0,0.0,91,0.00,,SKC,0.00,VWS V14.01,2013-04-16 08:18:00,
2013-04-16 04:19:00,36.2,33.8,30.36,WSW,248,0.0,0.0,91,0.00,,SKC,0.00,VWS V14.01,2013-04-16 08:19:00,
2013-04-16 04:20:00,36.2,33.8,30.36,WSW,244,0.0,0.0,91,0.00,,SKC,0.00,VWS V14.01,2013-04-16 08:20:00,
2013-04-16 04:22:00,36.2,33.8,30.36,WSW,244,0.0,0.0,91,0.00,,SKC,0.00,VWS V14.01,2013-04-16 08:22:00,
2013-04-16 04:24:00,36.0,33.6,30.36,WSW,243,0.0,0.0,91,0.00,,SKC,0.00,VWS V14.01,2013-04-16 08:24:00,
2013-04-16 04:25:00,36.0,33.6,30.36,WSW,248,0.0,0.0,91,0.00,,SKC,0.00,VWS V14.01,2013-04-16 08:25:00,
2013-04-16 04:27:00,36.0,33.6,30.36,WSW,250,0.0,0.0,91,0.00,,SKC,0.00,VWS V14.01,2013-04-16 08:27:00,
2013-04-16 04:29:00,36.0,33.6,30.36,WSW,250,0.0,0.0,91,0.00,,SKC,0.00,VWS V14.01,2013-04-16 08:29:00,
2013-04-16 04:30:00,35.9,33.5,30.37,WSW,248,0.0,0.0,91,0.00,,SKC,0.00,VWS V14.01,2013-04-16 08:30:00,
2013-04-16 04:32:00,35.9,33.5,30.37,WSW,250,0.0,0.0,91,0.00,,SKC,0.00,VWS V14.01,2013-04-16 08:32:00,
2013-04-16 04:35:00,35.9,33.8,30.37,WSW,250,0.0,0.0,92,0.00,,SKC,0.00,VWS V14.01,2013-04-16 08:35:00,
2013-04-16 04:36:00,35.9,33.8,30.37,WSW,246,0.0,0.0,92,0.00,,SKC,0.00,VWS V14.01,2013-04-16 08:36:00,
2013-04-16 04:37:00,35.9,33.8,30.37,WSW,250,0.0,0.0,92,0.00,,SKC,0.00,VWS V14.01,2013-04-16 08:37:00,
2013-04-16 04:38:00,35.8,33.7,30.37,WSW,250,0.0,0.0,92,0.00,,SKC,0.00,VWS V14.01,2013-04-16 08:38:00,
2013-04-16 04:40:00,35.8,33.7,30.37,WSW,250,0.0,0.0,92,0.00,,SKC,0.00,VWS V14.01,2013-04-16 08:40:00,
2013-04-16 04:41:00,35.8,33.7,30.37,WSW,250,0.0,0.0,92,0.00,,SKC,0.00,VWS V14.01,2013-04-16 08:41:00,
2013-04-16 04:43:00,35.8,33.7,30.37,WSW,250,0.0,0.0,92,0.00,,SKC,0.00,VWS V14.01,2013-04-16 08:43:00,
2013-04-16 04:45:00,35.6,33.5,30.36,WSW,248,0.0,0.0,92,0.00,,SKC,0.00,VWS V14.01,2013-04-16 08:45:00,
2013-04-16 04:46:00,35.6,33.5,30.36,WSW,250,0.0,0.0,92,0.00,,SKC,0.00,VWS V14.01,2013-04-16 08:46:00,
2013-04-16 04:48:00,35.6,33.5,30.36,WSW,250,0.0,0.0,92,0.00,,SKC,0.00,VWS V14.01,2013-04-16 08:48:00,
2013-04-16 04:49:00,35.6,33.5,30.36,WSW,250,0.0,0.0,92,0.00,,SKC,0.00,VWS V14.01,2013-04-16 08:49:00,
2013-04-16 04:50:00,35.6,33.5,30.36,WSW,250,0.0,0.0,92,0.00,,SKC,0.00,VWS V14.01,2013-04-16 08:50:00,
2013-04-16 04:52:00,35.5,33.4,30.36,WSW,248,0.0,0.0,92,0.00,,SKC,0.00,VWS V14.01,2013-04-16 08:52:00,
2013-04-16 04:53:00,35.5,33.4,30.36,WSW,248,0.0,0.0,92,0.00,,SKC,0.00,VWS V14.01,2013-04-16 08:53:00,
2013-04-16 04:54:00,35.5,33.4,30.36,WSW,248,0.0,0.0,92,0.00,,SKC,0.00,VWS V14.01,2013-04-16 08:54:00,
2013-04-16 04:55:00,35.5,33.4,30.36,WSW,248,0.0,0.0,92,0.00,,SKC,0.00,VWS V14.01,2013-04-16 08:55:00,
2013-04-16 04:57:00,35.5,33.4,30.36,WSW,248,0.0,0.0,92,0.00,,SKC,0.00,VWS V14.01,2013-04-16 08:57:00,
2013-04-16 04:59:00,35.5,33.4,30.36,WSW,251,0.0,0.0,92,0.00,,SKC,0.00,VWS V14.01,2013-04-16 08:59:00,
2013-04-16 05:00:00,35.3,33.2,30.36,WSW,248,0.0,0.0,92,0.00,,SKC,0.00,VWS V14.01,2013-04-16 09:00:00,
2013-04-16 05:03:00,35.3,33.2,30.36,WSW,250,0.0,0.0,92,0.00,,SKC,0.00,VWS V14.01,2013-04-16 09:03:00,
2013-04-16 05:04:00,35.3,33.2,30.36,WSW,250,0.0,0.0,92,0.00,,SKC,0.00,VWS V14.01,2013-04-16 09:04:00,
2013-04-16 05:05:00,36.5,34.1,30.37,WSW,247,0.0,0.0,91,0.00,,SKC,0.00,VWS V14.01,2013-04-16 09:05:00,
2013-04-16 05:06:00,35.5,33.4,30.36,WSW,248,0.0,0.0,92,0.00,,SKC,0.00,VWS V14.01,2013-04-16 09:06:00,
2013-04-16 05:09:00,35.3,33.2,30.36,WSW,250,0.0,0.0,92,0.00,,SKC,0.00,VWS V14.01,2013-04-16 09:09:00,
2013-04-16 05:10:00,36.3,33.9,30.37,WSW,247,0.0,0.0,91,0.00,,SKC,0.00,VWS V14.01,2013-04-16 09:10:00,
2013-04-16 05:11:00,35.3,33.2,30.36,WSW,248,0.0,0.0,92,0.00,,SKC,0.00,VWS V14.01,2013-04-16 09:11:00,
2013-04-16 05:12:00,35.3,33.2,30.36,WSW,250,0.0,0.0,92,0.00,,SKC,0.00,VWS V14.01,2013-04-16 09:12:00,
2013-04-16 05:14:00,35.3,33.2,30.36,WSW,250,0.0,0.0,92,0.00,,SKC,0.00,VWS V14.01,2013-04-16 09:14:00,
2013-04-16 05:15:00,35.3,33.2,30.36,WSW,250,0.0,0.0,92,0.00,,SKC,0.00,VWS V14.01,2013-04-16 09:15:00,
2013-04-16 05:17:00,35.3,33.2,30.36,WSW,250,0.0,0.0,92,0.00,,SKC,0.00,VWS V14.01,2013-04-16 09:17:00,
2013-04-16 05:18:00,35.3,33.2,30.36,WSW,250,0.0,0.0,92,0.00,,SKC,0.00,VWS V14.01,2013-04-16 09:18:00,
2013-04-16 05:19:00,35.3,33.2,30.36,WSW,248,0.0,0.0,92,0.00,,SKC,0.00,VWS V14.01,2013-04-16 09:19:00,
2013-04-16 05:20:00,35.3,33.2,30.36,WSW,250,0.0,0.0,92,0.00,,SKC,0.00,VWS V14.01,2013-04-16 09:20:00,
2013-04-16 05:22:00,35.3,33.2,30.36,WSW,248,0.0,0.0,92,0.00,,SKC,0.00,VWS V14.01,2013-04-16 09:22:00,
2013-04-16 05:23:00,35.3,33.2,30.36,WSW,248,0.0,0.0,92,0.00,,SKC,0.00,VWS V14.01,2013-04-16 09:23:00,
2013-04-16 05:24:00,35.3,33.2,30.36,WSW,250,0.0,0.0,92,0.00,,SKC,0.00,VWS V14.01,2013-04-16 09:24:00,
2013-04-16 05:25:00,36.0,33.6,30.36,WSW,246,0.0,0.0,91,0.00,,SKC,0.00,VWS V14.01,2013-04-16 09:25:00,
2013-04-16 05:26:00,35.3,33.2,30.36,WSW,250,0.0,0.0,92,0.00,,SKC,0.00,VWS V14.01,2013-04-16 09:26:00,
2013-04-16 05:27:00,35.3,33.2,30.36,WSW,246,0.0,0.0,92,0.00,,SKC,0.00,VWS V14.01,2013-04-16 09:27:00,
2013-04-16 05:28:00,35.5,33.4,30.36,WSW,250,0.0,0.0,92,0.00,,SKC,0.00,VWS V14.01,2013-04-16 09:28:00,
2013-04-16 05:29:00,35.5,33.4,30.36,WSW,250,0.0,0.0,92,0.00,,SKC,0.00,VWS V14.01,2013-04-16 09:29:00,
2013-04-16 05:30:00,36.0,33.6,30.37,WSW,248,0.0,0.0,91,0.00,,SKC,0.00,VWS V14.01,2013-04-16 09:30:00,
2013-04-16 05:31:00,35.5,33.4,30.36,WSW,250,0.0,0.0,92,0.00,,SKC,0.00,VWS V14.01,2013-04-16 09:31:00,
2013-04-16 05:32:00,35.5,33.4,30.36,WSW,250,0.0,0.0,92,0.00,,SKC,0.00,VWS V14.01,2013-04-16 09:32:00,
2013-04-16 05:33:00,35.6,33.5,30.36,WSW,250,0.0,0.0,92,0.00,,SKC,0.00,VWS V14.01,2013-04-16 09:33:00,
2013-04-16 05:35:00,35.8,33.7,30.36,WSW,248,0.0,0.0,92,0.00,,SKC,0.00,VWS V14.01,2013-04-16 09:35:00,
2013-04-16 05:37:00,36.0,33.9,30.36,WSW,250,0.0,0.0,92,0.00,,SKC,0.00,VWS V14.01,2013-04-16 09:37:00,
2013-04-16 05:38:00,36.3,34.2,30.36,WSW,248,0.0,0.0,92,0.00,,SKC,0.00,VWS V14.01,2013-04-16 09:38:00,
2013-04-16 05:40:00,36.3,34.5,30.36,WSW,248,0.0,0.0,93,0.00,,SKC,0.00,VWS V14.01,2013-04-16 09:40:00,
2013-04-16 05:42:00,36.3,34.5,30.36,WSW,250,0.0,0.0,93,0.00,,SKC,0.00,VWS V14.01,2013-04-16 09:42:00,
2013-04-16 05:43:00,36.3,34.5,30.36,WSW,250,0.0,0.0,93,0.00,,SKC,0.00,VWS V14.01,2013-04-16 09:43:00,
2013-04-16 05:45:00,36.6,34.8,30.36,WSW,250,0.0,0.0,93,0.00,,SKC,0.00,VWS V14.01,2013-04-16 09:45:00,
2013-04-16 05:46:00,36.8,35.0,30.36,WSW,253,0.0,0.0,93,0.00,,SKC,0.00,VWS V14.01,2013-04-16 09:46:00,
2013-04-16 05:47:00,36.8,35.0,30.36,WSW,250,0.0,0.0,93,0.00,,SKC,0.00,VWS V14.01,2013-04-16 09:47:00,
2013-04-16 05:48:00,36.8,35.0,30.36,WSW,250,0.0,0.0,93,0.00,,SKC,0.00,VWS V14.01,2013-04-16 09:48:00,
2013-04-16 05:49:00,36.9,35.1,30.36,WSW,251,0.0,0.0,93,0.00,,SKC,0.00,VWS V14.01,2013-04-16 09:49:00,
2013-04-16 05:50:00,37.0,35.2,30.36,WSW,250,0.0,0.0,93,0.00,,SKC,0.00,VWS V14.01,2013-04-16 09:50:00,
2013-04-16 05:52:00,37.2,35.4,30.36,WSW,250,0.0,0.0,93,0.00,,SKC,0.00,VWS V14.01,2013-04-16 09:52:00,
2013-04-16 05:53:00,37.3,35.5,30.36,WSW,250,0.0,0.0,93,0.00,,SKC,0.00,VWS V14.01,2013-04-16 09:53:00,
2013-04-16 05:54:00,37.3,35.5,30.36,WSW,248,0.0,0.0,93,0.00,,SKC,0.00,VWS V14.01,2013-04-16 09:54:00,
2013-04-16 05:55:00,37.3,35.5,30.36,WSW,250,0.0,0.0,93,0.00,,SKC,0.00,VWS V14.01,2013-04-16 09:55:00,
2013-04-16 05:57:00,37.3,35.5,30.36,WSW,250,0.0,0.0,93,0.00,,SKC,0.00,VWS V14.01,2013-04-16 09:57:00,
2013-04-16 05:58:00,37.2,35.4,30.36,WSW,250,0.0,0.0,93,0.00,,SKC,0.00,VWS V14.01,2013-04-16 09:58:00,
2013-04-16 05:59:00,37.2,35.4,30.36,WSW,250,0.0,0.0,93,0.00,,SKC,0.00,VWS V14.01,2013-04-16 09:59:00,
2013-04-16 06:00:00,36.9,34.8,30.36,WSW,248,0.0,0.0,92,0.00,,SKC,0.00,VWS V14.01,2013-04-16 10:00:00,
2013-04-16 06:02:00,36.6,34.5,30.36,WSW,248,0.0,0.0,92,0.00,,SKC,0.00,VWS V14.01,2013-04-16 10:02:00,
2013-04-16 06:03:00,36.5,34.4,30.36,WSW,248,0.0,0.0,92,0.00,,SKC,0.00,VWS V14.01,2013-04-16 10:03:00,
2013-04-16 06:04:00,36.5,34.4,30.36,WSW,250,0.0,0.0,92,0.00,,SKC,0.00,VWS V14.01,2013-04-16 10:04:00,
2013-04-16 06:05:00,36.3,34.2,30.36,WSW,250,0.0,0.0,92,0.00,,SKC,0.00,VWS V14.01,2013-04-16 10:05:00,
2013-04-16 06:07:00,36.3,34.2,30.36,WSW,250,0.0,0.0,92,0.00,,SKC,0.00,VWS V14.01,2013-04-16 10:07:00,
2013-04-16 06:09:00,36.2,34.1,30.36,WSW,250,0.0,0.0,92,0.00,,SKC,0.00,VWS V14.01,2013-04-16 10:09:00,
2013-04-16 06:10:00,36.2,34.1,30.36,WSW,250,0.0,0.0,92,0.00,,SKC,0.00,VWS V14.01,2013-04-16 10:10:00,
2013-04-16 06:11:00,36.2,34.1,30.36,WSW,247,0.0,0.0,92,0.00,,SKC,0.00,VWS V14.01,2013-04-16 10:11:00,
2013-04-16 06:13:00,36.0,33.9,30.36,WSW,247,0.0,0.0,92,0.00,,SKC,0.00,VWS V14.01,2013-04-16 10:13:00,
2013-04-16 06:15:00,36.0,33.9,30.36,WSW,247,0.0,0.0,92,0.00,,SKC,0.00,VWS V14.01,2013-04-16 10:15:00,
2013-04-16 06:16:00,36.0,33.9,30.36,WSW,244,0.0,0.0,92,0.00,,SKC,0.00,VWS V14.01,2013-04-16 10:16:00,
2013-04-16 06:17:00,36.0,33.9,30.36,WSW,247,0.0,0.0,92,0.00,,SKC,0.00,VWS V14.01,2013-04-16 10:17:00,
2013-04-16 06:18:00,36.0,33.9,30.36,WSW,246,0.0,0.0,92,0.00,,SKC,0.00,VWS V14.01,2013-04-16 10:18:00,
2013-04-16 06:20:00,36.0,33.9,30.36,WSW,246,0.0,0.0,92,0.00,,SKC,0.00,VWS V14.01,2013-04-16 10:20:00,
2013-04-16 06:21:00,36.0,33.9,30.36,WSW,247,0.0,0.0,92,0.00,,SKC,0.00,VWS V14.01,2013-04-16 10:21:00,
2013-04-16 06:22:00,36.0,33.9,30.36,WSW,246,0.0,0.0,92,0.00,,SKC,0.00,VWS V14.01,2013-04-16 10:22:00,
2013-04-16 06:23:00,36.0,33.9,30.36,WSW,247,0.0,0.0,92,0.00,,SKC,0.00,VWS V14.01,2013-04-16 10:23:00,
2013-04-16 06:25:00,36.0,33.9,30.36,WSW,247,0.0,0.0,92,0.00,,SKC,0.00,VWS V14.01,2013-04-16 10:25:00,
2013-04-16 06:27:00,35.9,33.8,30.36,WSW,247,0.0,0.0,92,0.00,,SKC,0.00,VWS V14.01,2013-04-16 10:27:00,
2013-04-16 06:28:00,35.9,33.8,30.36,WSW,246,0.0,0.0,92,0.00,,SKC,0.00,VWS V14.01,2013-04-16 10:28:00,
2013-04-16 06:30:00,36.0,33.9,30.36,WSW,247,0.0,0.0,92,0.00,,SKC,0.00,VWS V14.01,2013-04-16 10:30:00,
2013-04-16 06:32:00,36.0,33.9,30.36,WSW,243,0.0,0.0,92,0.00,,SKC,0.00,VWS V14.01,2013-04-16 10:32:00,
2013-04-16 06:33:00,36.0,33.9,30.36,WSW,244,0.0,0.0,92,0.00,,SKC,0.00,VWS V14.01,2013-04-16 10:33:00,
2013-04-16 06:35:00,35.9,33.8,30.36,WSW,253,0.0,0.0,92,0.00,,SKC,0.00,VWS V14.01,2013-04-16 10:35:00,
2013-04-16 06:36:00,36.0,33.9,30.36,WSW,247,0.0,0.0,92,0.00,,SKC,0.00,VWS V14.01,2013-04-16 10:36:00,
2013-04-16 06:37:00,36.0,33.9,30.36,WSW,246,0.0,0.0,92,0.00,,SKC,0.00,VWS V14.01,2013-04-16 10:37:00,
2013-04-16 06:38:00,36.0,33.9,30.36,WSW,247,0.0,0.0,92,0.00,,SKC,0.00,VWS V14.01,2013-04-16 10:38:00,
2013-04-16 06:40:00,36.3,34.5,30.36,WSW,250,0.0,0.0,93,0.00,,SKC,0.00,VWS V14.01,2013-04-16 10:40:00,
2013-04-16 06:41:00,36.0,33.9,30.36,WSW,246,0.0,0.0,92,0.00,,SKC,0.00,VWS V14.01,2013-04-16 10:41:00,
2013-04-16 06:42:00,36.2,34.1,30.36,WSW,247,0.0,0.0,92,0.00,,SKC,0.00,VWS V14.01,2013-04-16 10:42:00,
2013-04-16 06:43:00,36.2,34.1,30.36,WSW,246,0.0,0.0,92,0.00,,SKC,0.00,VWS V14.01,2013-04-16 10:43:00,
2013-04-16 06:44:00,36.2,34.1,30.36,WSW,246,0.0,0.0,92,0.00,,SKC,0.00,VWS V14.01,2013-04-16 10:44:00,
2013-04-16 06:45:00,36.6,34.8,30.36,WSW,250,0.0,0.0,93,0.00,,SKC,0.00,VWS V14.01,2013-04-16 10:45:00,
2013-04-16 06:46:00,36.5,34.4,30.36,WSW,247,0.0,0.0,92,0.00,,SKC,0.00,VWS V14.01,2013-04-16 10:46:00,
2013-04-16 06:47:00,36.5,34.4,30.36,WSW,247,0.0,0.0,92,0.00,,SKC,0.00,VWS V14.01,2013-04-16 10:47:00,
2013-04-16 06:48:00,36.6,34.5,30.36,WSW,246,0.0,0.0,92,0.00,,SKC,0.00,VWS V14.01,2013-04-16 10:48:00,
2013-04-16 06:49:00,36.8,34.7,30.36,WSW,246,0.0,0.0,92,0.00,,SKC,0.00,VWS V14.01,2013-04-16 10:49:00,
2013-04-16 06:50:00,37.0,35.2,30.36,WSW,250,0.0,0.0,93,0.00,,SKC,0.00,VWS V14.01,2013-04-16 10:50:00,
2013-04-16 06:51:00,37.0,34.9,30.36,WSW,244,0.0,0.0,92,0.00,,SKC,0.00,VWS V14.01,2013-04-16 10:51:00,
2013-04-16 06:53:00,37.2,35.1,30.36,WSW,246,0.0,0.0,92,0.00,,SKC,0.00,VWS V14.01,2013-04-16 10:53:00,
2013-04-16 06:54:00,37.3,35.2,30.36,WSW,243,0.0,0.0,92,0.00,,SKC,0.00,VWS V14.01,2013-04-16 10:54:00,
2013-04-16 06:55:00,37.3,35.5,30.36,WSW,248,0.0,0.0,93,0.00,,SKC,0.00,VWS V14.01,2013-04-16 10:55:00,
2013-04-16 06:56:00,37.6,35.5,30.36,WSW,246,0.0,0.0,92,0.00,,SKC,0.00,VWS V14.01,2013-04-16 10:56:00,
2013-04-16 06:59:00,38.0,35.9,30.36,WSW,244,0.0,0.0,92,0.00,,SKC,0.00,VWS V14.01,2013-04-16 10:59:00,
2013-04-16 07:00:00,38.2,36.1,30.36,WSW,244,0.0,0.0,92,0.00,,SKC,0.00,VWS V14.01,2013-04-16 11:00:00,
2013-04-16 07:01:00,38.5,36.4,30.36,WSW,247,0.0,0.0,92,0.00,,SKC,0.00,VWS V14.01,2013-04-16 11:01:00,
2013-04-16 07:04:00,38.8,36.7,30.36,WSW,246,0.0,0.0,92,0.00,,SKC,0.00,VWS V14.01,2013-04-16 11:04:00,
2013-04-16 07:05:00,38.9,36.5,30.36,WSW,246,0.0,0.0,91,0.00,,SKC,0.00,VWS V14.01,2013-04-16 11:05:00,
2013-04-16 07:07:00,39.1,36.7,30.36,WSW,246,0.0,0.0,91,0.00,,SKC,0.00,VWS V14.01,2013-04-16 11:07:00,
2013-04-16 07:09:00,39.3,36.9,30.36,WSW,247,0.0,0.0,91,0.00,,SKC,0.00,VWS V14.01,2013-04-16 11:09:00,
2013-04-16 07:10:00,39.3,36.9,30.36,WSW,246,0.0,0.0,91,0.00,,SKC,0.00,VWS V14.01,2013-04-16 11:10:00,
2013-04-16 07:12:00,39.6,36.9,30.36,WSW,247,0.0,0.0,90,0.00,,SKC,0.00,VWS V14.01,2013-04-16 11:12:00,
2013-04-16 07:15:00,39.8,37.1,30.36,WSW,246,0.0,1.0,90,0.00,,SKC,0.00,VWS V14.01,2013-04-16 11:15:00,
2013-04-16 07:17:00,40.2,37.5,30.36,WSW,246,3.0,3.0,90,0.00,,SKC,0.00,VWS V14.01,2013-04-16 11:17:00,
2013-04-16 07:18:00,40.2,37.5,30.36,WSW,246,3.0,3.0,90,0.00,,SKC,0.00,VWS V14.01,2013-04-16 11:18:00,
2013-04-16 07:20:00,40.5,37.8,30.36,WSW,247,1.0,3.0,90,0.00,,SKC,0.00,VWS V14.01,2013-04-16 11:20:00,
2013-04-16 07:21:00,40.6,37.6,30.36,WSW,244,3.0,3.0,89,0.00,,SKC,0.00,VWS V14.01,2013-04-16 11:21:00,
2013-04-16 07:23:00,40.9,37.9,30.36,WSW,247,2.0,3.0,89,0.00,,SKC,0.00,VWS V14.01,2013-04-16 11:23:00,
2013-04-16 07:25:00,41.2,38.2,30.36,WSW,244,0.0,3.0,89,0.00,,SKC,0.00,VWS V14.01,2013-04-16 11:25:00,
2013-04-16 07:26:00,41.3,38.3,30.36,WSW,247,1.0,3.0,89,0.00,,SKC,0.00,VWS V14.01,2013-04-16 11:26:00,
2013-04-16 07:28:00,41.5,38.5,30.36,WSW,248,2.0,3.0,89,0.00,,SKC,0.00,VWS V14.01,2013-04-16 11:28:00,
2013-04-16 07:29:00,41.6,38.3,30.36,WSW,246,1.0,3.0,88,0.00,,SKC,0.00,VWS V14.01,2013-04-16 11:29:00,
2013-04-16 07:30:00,41.6,38.3,30.36,WSW,246,3.0,3.0,88,0.00,,SKC,0.00,VWS V14.01,2013-04-16 11:30:00,
2013-04-16 07:31:00,41.8,38.2,30.36,WSW,248,2.0,3.0,87,0.00,,SKC,0.00,VWS V14.01,2013-04-16 11:31:00,
2013-04-16 07:34:00,41.9,38.3,30.36,WSW,251,2.0,4.0,87,0.00,,SKC,0.00,VWS V14.01,2013-04-16 11:34:00,
2013-04-16 07:35:00,42.1,38.2,30.36,WSW,250,3.0,4.0,86,0.00,,SKC,0.00,VWS V14.01,2013-04-16 11:35:00,
2013-04-16 07:36:00,42.1,38.2,30.36,WSW,250,2.0,3.0,86,0.00,,SKC,0.00,VWS V14.01,2013-04-16 11:36:00,
2013-04-16 07:37:00,42.2,38.3,30.36,WSW,250,3.0,3.0,86,0.00,,SKC,0.00,VWS V14.01,2013-04-16 11:37:00,
2013-04-16 07:39:00,42.3,38.1,30.36,WSW,251,5.0,5.0,85,0.00,,SKC,0.00,VWS V14.01,2013-04-16 11:39:00,
2013-04-16 07:40:00,42.5,38.3,30.36,WSW,243,2.0,5.0,85,0.00,,SKC,0.00,VWS V14.01,2013-04-16 11:40:00,
2013-04-16 07:41:00,42.5,38.3,30.36,WSW,243,2.0,2.0,85,0.00,,SKC,0.00,VWS V14.01,2013-04-16 11:41:00,
2013-04-16 07:42:00,42.6,38.4,30.36,WSW,241,3.0,3.0,85,0.00,,SKC,0.00,VWS V14.01,2013-04-16 11:42:00,
2013-04-16 07:44:00,42.9,38.1,30.35,WSW,250,5.0,5.0,83,0.00,,SKC,0.00,VWS V14.01,2013-04-16 11:44:00,
2013-04-16 07:45:00,42.9,37.8,30.35,WSW,244,5.0,5.0,82,0.00,,SKC,0.00,VWS V14.01,2013-04-16 11:45:00,
2013-04-16 07:46:00,43.1,38.0,30.35,WSW,248,3.0,6.0,82,0.00,,SKC,0.00,VWS V14.01,2013-04-16 11:46:00,
2013-04-16 07:47:00,43.1,38.0,30.35,WSW,251,1.0,6.0,82,0.00,,SKC,0.00,VWS V14.01,2013-04-16 11:47:00,
2013-04-16 07:49:00,43.3,37.9,30.35,WSW,256,2.0,6.0,81,0.00,,SKC,0.00,VWS V14.01,2013-04-16 11:49:00,
2013-04-16 07:50:00,36.8,34.7,30.36,WSW,246,0.0,0.0,92,0.00,,SKC,0.00,VWS V14.01,2013-04-16 11:50:00,
2013-04-16 07:51:00,43.5,38.1,30.35,WSW,250,3.0,6.0,81,0.00,,SKC,0.00,VWS V14.01,2013-04-16 11:51:00,
2013-04-16 07:52:00,43.5,37.4,30.35,WSW,251,5.0,6.0,79,0.00,,SKC,0.00,VWS V14.01,2013-04-16 11:52:00,
2013-04-16 07:55:00,37.5,35.4,30.36,WSW,247,0.0,0.0,92,0.00,,SKC,0.00,VWS V14.01,2013-04-16 11:55:00,
2013-04-16 07:56:00,43.8,37.4,30.35,WSW,254,2.0,3.0,78,0.00,,SKC,0.00,VWS V14.01,2013-04-16 11:56:00,
2013-04-16 07:57:00,43.8,37.4,30.35,WSW,253,4.0,5.0,78,0.00,,SKC,0.00,VWS V14.01,2013-04-16 11:57:00,
2013-04-16 07:58:00,43.9,37.5,30.35,WSW,254,3.0,5.0,78,0.00,,SKC,0.00,VWS V14.01,2013-04-16 11:58:00,
2013-04-16 08:00:00,38.2,36.1,30.36,WSW,243,0.0,0.0,92,0.00,,SKC,0.00,VWS V14.01,2013-04-16 12:00:00,
2013-04-16 08:02:00,44.2,37.8,30.36,WSW,253,1.0,2.0,78,0.00,,SKC,0.00,VWS V14.01,2013-04-16 12:02:00,
2013-04-16 08:03:00,44.2,37.8,30.36,WSW,253,0.0,2.0,78,0.00,,SKC,0.00,VWS V14.01,2013-04-16 12:03:00,
2013-04-16 08:05:00,38.9,36.5,30.36,WSW,246,0.0,0.0,91,0.00,,SKC,0.00,VWS V14.01,2013-04-16 12:05:00,
2013-04-16 08:07:00,44.9,38.5,30.36,WSW,248,3.0,3.0,78,0.00,,SKC,0.00,VWS V14.01,2013-04-16 12:07:00,
2013-04-16 08:08:00,45.1,37.7,30.36,WSW,237,3.0,3.0,75,0.00,,SKC,0.00,VWS V14.01,2013-04-16 12:08:00,
2013-04-16 08:10:00,39.3,36.9,30.36,WSW,246,0.0,0.0,91,0.00,,SKC,0.00,VWS V14.01,2013-04-16 12:10:00,
2013-04-16 08:12:00,45.5,38.0,30.36,WSW,243,0.0,3.0,75,0.00,,SKC,0.00,VWS V14.01,2013-04-16 12:12:00,
2013-04-16 08:13:00,45.5,37.4,30.36,WSW,244,0.0,3.0,73,0.00,,SKC,0.00,VWS V14.01,2013-04-16 12:13:00,
2013-04-16 08:15:00,39.9,37.2,30.36,WSW,244,0.0,1.0,90,0.00,,SKC,0.00,VWS V14.01,2013-04-16 12:15:00,
2013-04-16 08:17:00,46.1,37.6,30.36,WSW,253,6.0,6.0,72,0.00,,SKC,0.00,VWS V14.01,2013-04-16 12:17:00,
2013-04-16 08:18:00,46.1,36.5,30.36,WSW,247,5.0,6.0,69,0.00,,SKC,0.00,VWS V14.01,2013-04-16 12:18:00,
2013-04-16 08:19:00,46.1,36.5,30.36,WSW,254,3.0,6.0,69,0.00,,SKC,0.00,VWS V14.01,2013-04-16 12:19:00,
2013-04-16 08:20:00,40.5,37.8,30.36,WSW,247,2.0,3.0,90,0.00,,SKC,0.00,VWS V14.01,2013-04-16 12:20:00,
2013-04-16 08:23:00,46.4,36.4,30.36,WSW,254,2.0,5.0,68,0.00,,SKC,0.00,VWS V14.01,2013-04-16 12:23:00,
2013-04-16 08:24:00,46.4,36.4,30.36,WSW,247,1.0,5.0,68,0.00,,SKC,0.00,VWS V14.01,2013-04-16 12:24:00,
2013-04-16 08:25:00,41.2,38.2,30.36,WSW,244,0.0,3.0,89,0.00,,SKC,0.00,VWS V14.01,2013-04-16 12:25:00,
2013-04-16 08:28:00,46.8,36.4,30.36,WSW,258,6.0,6.0,67,0.00,,SKC,0.00,VWS V14.01,2013-04-16 12:28:00,
2013-04-16 08:29:00,46.8,36.0,30.36,WSW,256,3.0,6.0,66,0.00,,SKC,0.00,VWS V14.01,2013-04-16 12:29:00,
2013-04-16 08:30:00,47.0,36.2,30.35,WSW,247,5.0,6.0,66,0.00,,SKC,0.00,VWS V14.01,2013-04-16 12:30:00,
2013-04-16 08:33:00,47.3,36.5,30.35,WSW,241,1.0,5.0,66,0.00,,SKC,0.00,VWS V14.01,2013-04-16 12:33:00,
2013-04-16 08:34:00,47.3,36.5,30.35,West,260,6.0,6.0,66,0.00,,SKC,0.00,VWS V14.01,2013-04-16 12:34:00,
2013-04-16 08:35:00,47.3,36.2,30.35,West,265,5.0,8.0,65,0.00,,SKC,0.00,VWS V14.01,2013-04-16 12:35:00,
2013-04-16 08:39:00,47.4,35.8,30.35,WSW,253,0.0,6.0,64,0.00,,SKC,0.00,VWS V14.01,2013-04-16 12:39:00,
2013-04-16 08:40:00,47.6,36.0,30.35,WSW,244,5.0,6.0,64,0.00,,SKC,0.00,VWS V14.01,2013-04-16 12:40:00,
2013-04-16 08:44:00,48.2,36.6,30.35,WSW,253,1.0,6.0,64,0.00,,SKC,0.00,VWS V14.01,2013-04-16 12:44:00,
2013-04-16 08:45:00,48.2,36.6,30.35,WSW,253,2.0,6.0,64,0.00,,SKC,0.00,VWS V14.01,2013-04-16 12:45:00,
2013-04-16 08:46:00,48.3,36.3,30.35,WSW,253,0.0,1.0,63,0.00,,SKC,0.00,VWS V14.01,2013-04-16 12:46:00,
2013-04-16 08:50:00,48.6,36.2,30.35,WSW,256,3.0,5.0,62,0.00,,SKC,0.00,VWS V14.01,2013-04-16 12:50:00,
2013-04-16 08:51:00,48.6,35.8,30.35,West,263,2.0,10.0,61,0.00,,SKC,0.00,VWS V14.01,2013-04-16 12:51:00,
2013-04-16 08:54:00,48.8,36.0,30.35,WSW,248,3.0,10.0,61,0.00,,SKC,0.00,VWS V14.01,2013-04-16 12:54:00,
2013-04-16 08:55:00,48.8,36.0,30.35,WSW,254,3.0,10.0,61,0.00,,SKC,0.00,VWS V14.01,2013-04-16 12:55:00,
2013-04-16 08:56:00,48.8,35.5,30.35,West,263,3.0,3.0,60,0.00,,SKC,0.00,VWS V14.01,2013-04-16 12:56:00,
2013-04-16 08:59:00,48.9,35.6,30.34,SW,234,1.0,6.0,60,0.00,,SKC,0.00,VWS V14.01,2013-04-16 12:59:00,
2013-04-16 09:00:00,48.9,35.6,30.34,WSW,243,0.0,6.0,60,0.00,,SKC,0.00,VWS V14.01,2013-04-16 13:00:00,
2013-04-16 09:01:00,49.1,35.8,30.34,West,264,3.0,5.0,60,0.00,,SKC,0.00,VWS V14.01,2013-04-16 13:01:00,
2013-04-16 09:02:00,49.1,35.8,30.34,West,265,2.0,5.0,60,0.00,,SKC,0.00,VWS V14.01,2013-04-16 13:02:00,
2013-04-16 09:04:00,49.4,36.1,30.34,West,263,3.0,5.0,60,0.00,,SKC,0.00,VWS V14.01,2013-04-16 13:04:00,
2013-04-16 09:05:00,49.4,35.7,30.34,West,268,1.0,2.0,59,0.00,,SKC,0.00,VWS V14.01,2013-04-16 13:05:00,
2013-04-16 09:06:00,49.5,36.2,30.34,West,264,3.0,5.0,60,0.00,,SKC,0.00,VWS V14.01,2013-04-16 13:06:00,
2013-04-16 09:07:00,49.5,36.2,30.34,WSW,258,0.0,5.0,60,0.00,,SKC,0.00,VWS V14.01,2013-04-16 13:07:00,
2013-04-16 09:10:00,49.9,36.2,30.34,West,263,0.0,5.0,59,0.00,,SKC,0.00,VWS V14.01,2013-04-16 13:10:00,
2013-04-16 09:11:00,50.1,36.3,30.34,WSW,246,3.0,5.0,59,0.00,,SKC,0.00,VWS V14.01,2013-04-16 13:11:00,
2013-04-16 09:12:00,50.1,35.9,30.34,WSW,241,6.0,6.0,58,0.00,,SKC,0.00,VWS V14.01,2013-04-16 13:12:00,
2013-04-16 09:15:00,50.4,35.8,30.34,West,260,2.0,3.0,57,0.00,,SKC,0.00,VWS V14.01,2013-04-16 13:15:00,
2013-04-16 09:16:00,50.4,35.8,30.34,WSW,253,3.0,3.0,57,0.00,,SKC,0.00,VWS V14.01,2013-04-16 13:16:00,
2013-04-16 09:17:00,50.4,35.8,30.34,WSW,239,3.0,7.0,57,0.00,,SKC,0.00,VWS V14.01,2013-04-16 13:17:00,
2013-04-16 09:20:00,46.2,36.6,30.36,WSW,257,2.0,6.0,69,0.00,,SKC,0.00,VWS V14.01,2013-04-16 13:20:00,
2013-04-16 09:21:00,50.7,36.0,30.34,West,281,5.0,7.0,57,0.00,,SKC,0.00,VWS V14.01,2013-04-16 13:21:00,
2013-04-16 09:23:00,50.8,35.7,30.34,West,264,0.0,9.0,56,0.00,,SKC,0.00,VWS V14.01,2013-04-16 13:23:00,
2013-04-16 09:25:00,46.5,36.5,30.36,SW,233,3.0,5.0,68,0.00,,SKC,0.00,VWS V14.01,2013-04-16 13:25:00,
2013-04-16 09:26:00,51.1,36.0,30.34,WSW,254,3.0,5.0,56,0.00,,SKC,0.00,VWS V14.01,2013-04-16 13:26:00,
2013-04-16 09:27:00,51.1,36.0,30.34,WSW,254,3.0,5.0,56,0.00,,SKC,0.00,VWS V14.01,2013-04-16 13:27:00,
2013-04-16 09:28:00,51.4,36.2,30.34,WSW,253,3.0,5.0,56,0.00,,SKC,0.00,VWS V14.01,2013-04-16 13:28:00,
2013-04-16 09:30:00,47.0,36.2,30.35,WSW,248,4.0,6.0,66,0.00,,SKC,0.00,VWS V14.01,2013-04-16 13:30:00,
2013-04-16 09:31:00,51.7,36.1,30.34,West,271,5.0,6.0,55,0.00,,SKC,0.00,VWS V14.01,2013-04-16 13:31:00,
2013-04-16 09:32:00,51.7,36.1,30.34,WSW,251,3.0,6.0,55,0.00,,SKC,0.00,VWS V14.01,2013-04-16 13:32:00,
2013-04-16 09:33:00,51.6,36.0,30.34,WNW,289,2.0,6.0,55,0.00,,SKC,0.00,VWS V14.01,2013-04-16 13:33:00,
2013-04-16 09:34:00,51.6,36.0,30.34,WSW,258,4.0,6.0,55,0.00,,SKC,0.00,VWS V14.01,2013-04-16 13:34:00,
2013-04-16 09:35:00,47.3,36.2,30.35,West,265,2.0,8.0,65,0.00,,SKC,0.00,VWS V14.01,2013-04-16 13:35:00,
2013-04-16 09:37:00,51.7,36.5,30.34,WSW,258,3.0,3.0,56,0.00,,SKC,0.00,VWS V14.01,2013-04-16 13:37:00,
2013-04-16 09:38:00,51.9,36.7,30.34,West,267,6.0,7.0,56,0.00,,SKC,0.00,VWS V14.01,2013-04-16 13:38:00,
2013-04-16 09:39:00,51.9,36.7,30.34,West,272,5.0,7.0,56,0.00,,SKC,0.00,VWS V14.01,2013-04-16 13:39:00,
2013-04-16 09:40:00,47.6,36.0,30.35,WSW,244,6.0,6.0,64,0.00,,SKC,0.00,VWS V14.01,2013-04-16 13:40:00,
2013-04-16 09:43:00,52.0,36.8,30.34,WSW,251,3.0,5.0,56,0.00,,SKC,0.00,VWS V14.01,2013-04-16 13:43:00,
2013-04-16 09:44:00,52.2,37.0,30.34,WSW,253,0.0,5.0,56,0.00,,SKC,0.00,VWS V14.01,2013-04-16 13:44:00,
2013-04-16 09:45:00,48.3,36.7,30.35,WSW,254,1.0,6.0,64,0.00,,SKC,0.00,VWS V14.01,2013-04-16 13:45:00,
2013-04-16 09:48:00,52.6,36.9,30.34,West,265,2.0,3.0,55,0.00,,SKC,0.00,VWS V14.01,2013-04-16 13:48:00,
2013-04-16 09:49:00,52.6,36.9,30.34,West,268,1.0,6.0,55,0.00,,SKC,0.00,VWS V14.01,2013-04-16 13:49:00,
2013-04-16 09:50:00,52.6,36.9,30.34,West,277,3.0,6.0,55,0.00,,SKC,0.00,VWS V14.01,2013-04-16 13:50:00,
2013-04-16 09:53:00,52.8,37.5,30.34,West,271,4.0,7.0,56,0.00,,SKC,0.00,VWS V14.01,2013-04-16 13:53:00,
2013-04-16 09:54:00,52.8,37.5,30.34,WSW,257,2.0,7.0,56,0.00,,SKC,0.00,VWS V14.01,2013-04-16 13:54:00,
2013-04-16 09:55:00,52.8,37.5,30.34,WSW,254,4.0,7.0,56,0.00,,SKC,0.00,VWS V14.01,2013-04-16 13:55:00,
2013-04-16 09:58:00,52.9,37.2,30.34,West,274,7.0,8.0,55,0.00,,SKC,0.00,VWS V14.01,2013-04-16 13:58:00,
2013-04-16 10:00:00,52.9,37.7,30.34,West,274,4.0,8.0,56,0.00,,SKC,0.00,VWS V14.01,2013-04-16 14:00:00,
2013-04-16 10:04:00,52.9,37.7,30.34,West,260,1.0,7.0,56,0.00,,SKC,0.00,VWS V14.01,2013-04-16 14:04:00,
2013-04-16 10:05:00,52.9,37.7,30.34,WSW,239,2.0,2.0,56,0.00,,SKC,0.00,VWS V14.01,2013-04-16 14:05:00,
2013-04-16 10:06:00,53.1,37.8,30.34,WSW,248,3.0,5.0,56,0.00,,SKC,0.00,VWS V14.01,2013-04-16 14:06:00,
2013-04-16 10:10:00,53.1,37.8,30.34,WSW,256,7.0,7.0,56,0.00,,SKC,0.00,VWS V14.01,2013-04-16 14:10:00,
2013-04-16 10:11:00,53.1,37.8,30.34,WSW,247,5.0,7.0,56,0.00,,SKC,0.00,VWS V14.01,2013-04-16 14:11:00,
2013-04-16 10:15:00,53.1,38.3,30.34,West,275,2.0,7.0,57,0.00,,SKC,0.00,VWS V14.01,2013-04-16 14:15:00,
2013-04-16 10:16:00,53.1,38.3,30.34,West,267,6.0,8.0,57,0.00,,SKC,0.00,VWS V14.01,2013-04-16 14:16:00,
2013-04-16 10:20:00,53.2,37.9,30.34,West,272,3.0,7.0,56,0.00,,SKC,0.00,VWS V14.01,2013-04-16 14:20:00,
2013-04-16 10:22:00,53.2,38.4,30.34,West,261,2.0,7.0,57,0.00,,SKC,0.00,VWS V14.01,2013-04-16 14:22:00,
2013-04-16 10:25:00,53.5,38.2,30.34,West,267,2.0,3.0,56,0.00,,SKC,0.00,VWS V14.01,2013-04-16 14:25:00,
2013-04-16 10:27:00,53.5,38.2,30.34,WSW,247,2.0,6.0,56,0.00,,SKC,0.00,VWS V14.01,2013-04-16 14:27:00,
2013-04-16 10:30:00,51.6,36.4,30.34,WNW,298,3.0,5.0,56,0.00,,SKC,0.00,VWS V14.01,2013-04-16 14:30:00,
2013-04-16 10:31:00,54.2,38.4,30.33,West,264,5.0,6.0,55,0.00,,SKC,0.00,VWS V14.01,2013-04-16 14:31:00,
2013-04-16 10:32:00,54.4,38.6,30.33,West,265,6.0,6.0,55,0.00,,SKC,0.00,VWS V14.01,2013-04-16 14:32:00,
2013-04-16 10:35:00,51.6,36.4,30.34,West,263,2.0,6.0,56,0.00,,SKC,0.00,VWS V14.01,2013-04-16 14:35:00,
2013-04-16 10:36:00,54.5,39.6,30.33,WSW,240,6.0,7.0,57,0.00,,SKC,0.00,VWS V14.01,2013-04-16 14:36:00,
2013-04-16 10:37:00,54.5,39.6,30.33,West,260,5.0,8.0,57,0.00,,SKC,0.00,VWS V14.01,2013-04-16 14:37:00,
2013-04-16 10:38:00,54.4,39.5,30.33,SW,236,6.0,8.0,57,0.00,,SKC,0.00,VWS V14.01,2013-04-16 14:38:00,
2013-04-16 10:39:00,54.2,38.9,30.33,SW,236,2.0,8.0,56,0.00,,SKC,0.00,VWS V14.01,2013-04-16 14:39:00,
2013-04-16 10:40:00,51.9,36.7,30.34,WSW,241,2.0,7.0,56,0.00,,SKC,0.00,VWS V14.01,2013-04-16 14:40:00,
2013-04-16 10:42:00,54.7,38.9,30.33,West,272,8.0,9.0,55,0.00,,SKC,0.00,VWS V14.01,2013-04-16 14:42:00,
2013-04-16 10:43:00,54.7,38.9,30.33,WSW,246,6.0,10.0,55,0.00,,SKC,0.00,VWS V14.01,2013-04-16 14:43:00,
2013-04-16 10:44:00,54.5,38.7,30.33,WSW,257,2.0,10.0,55,0.00,,SKC,0.00,VWS V14.01,2013-04-16 14:44:00,
2013-04-16 10:45:00,52.3,37.1,30.34,West,261,1.0,5.0,56,0.00,,SKC,0.00,VWS V14.01,2013-04-16 14:45:00,
2013-04-16 10:47:00,54.7,39.3,30.32,WSW,257,2.0,6.0,56,0.00,,SKC,0.00,VWS V14.01,2013-04-16 14:47:00,
2013-04-16 10:48:00,54.7,39.3,30.32,WSW,256,9.0,9.0,56,0.00,,SKC,0.00,VWS V14.01,2013-04-16 14:48:00,
2013-04-16 10:49:00,54.7,39.3,30.32,West,261,10.0,10.0,56,0.00,,SKC,0.00,VWS V14.01,2013-04-16 14:49:00,
2013-04-16 10:50:00,52.6,36.9,30.34,West,278,2.0,6.0,55,0.00,,SKC,0.00,VWS V14.01,2013-04-16 14:50:00,
2013-04-16 10:52:00,54.5,39.6,30.32,WSW,251,7.0,8.0,57,0.00,,SKC,0.00,VWS V14.01,2013-04-16 14:52:00,
2013-04-16 10:53:00,54.5,39.6,30.32,WSW,251,7.0,8.0,57,0.00,,SKC,0.00,VWS V14.01,2013-04-16 14:53:00,
2013-04-16 10:54:00,54.4,39.5,30.32,West,265,8.0,8.0,57,0.00,,SKC,0.00,VWS V14.01,2013-04-16 14:54:00,
2013-04-16 10:55:00,52.8,37.5,30.34,WSW,256,3.0,7.0,56,0.00,,SKC,0.00,VWS V14.01,2013-04-16 14:55:00,
2013-04-16 10:58:00,54.5,40.5,30.32,West,275,5.0,7.0,59,0.00,,SKC,0.00,VWS V14.01,2013-04-16 14:58:00,
2013-04-16 10:59:00,54.5,39.6,30.32,West,264,8.0,11.0,57,0.00,,SKC,0.00,VWS V14.01,2013-04-16 14:59:00,
2013-04-16 11:00:00,52.9,37.7,30.34,West,274,4.0,8.0,56,0.00,,SKC,0.00,VWS V14.01,2013-04-16 15:00:00,
2013-04-16 11:01:00,54.4,39.5,30.32,WSW,244,5.0,11.0,57,0.00,,SKC,0.00,VWS V14.01,2013-04-16 15:01:00,
2013-04-16 11:03:00,54.1,39.2,30.32,WSW,246,5.0,11.0,57,0.00,,SKC,0.00,VWS V14.01,2013-04-16 15:03:00,
2013-04-16 11:04:00,54.1,39.2,30.32,WSW,250,6.0,11.0,57,0.00,,SKC,0.00,VWS V14.01,2013-04-16 15:04:00,
2013-04-16 11:05:00,54.2,39.8,30.32,WSW,248,3.0,11.0,58,0.00,,SKC,0.00,VWS V14.01,2013-04-16 15:05:00,
2013-04-16 11:07:00,54.5,40.0,30.32,SW,233,4.0,10.0,58,0.00,,SKC,0.00,VWS V14.01,2013-04-16 15:07:00,
2013-04-16 11:08:00,54.8,40.3,30.32,WSW,244,5.0,10.0,58,0.00,,SKC,0.00,VWS V14.01,2013-04-16 15:08:00,
2013-04-16 11:09:00,55.0,41.0,30.32,WSW,250,2.0,10.0,59,0.00,,SKC,0.00,VWS V14.01,2013-04-16 15:09:00,
2013-04-16 11:10:00,55.3,41.2,30.32,West,260,8.0,10.0,59,0.00,,SKC,0.00,VWS V14.01,2013-04-16 15:10:00,
2013-04-16 11:11:00,55.1,41.0,30.32,SW,232,6.0,8.0,59,0.00,,SKC,0.00,VWS V14.01,2013-04-16 15:11:00,
2013-04-16 11:12:00,55.1,40.6,30.32,WSW,243,5.0,8.0,58,0.00,,SKC,0.00,VWS V14.01,2013-04-16 15:12:00,
2013-04-16 11:14:00,55.1,40.6,30.32,WSW,256,1.0,8.0,58,0.00,,SKC,0.00,VWS V14.01,2013-04-16 15:14:00,
2013-04-16 11:15:00,55.4,40.9,30.32,WSW,254,5.0,8.0,58,0.00,,SKC,0.00,VWS V14.01,2013-04-16 15:15:00,
2013-04-16 11:17:00,55.4,40.4,30.32,WSW,256,5.0,10.0,57,0.00,,SKC,0.00,VWS V14.01,2013-04-16 15:17:00,
2013-04-16 11:19:00,55.1,40.2,30.32,WSW,254,6.0,10.0,57,0.00,,SKC,0.00,VWS V14.01,2013-04-16 15:19:00,
2013-04-16 11:20:00,55.0,40.1,30.32,West,271,7.0,7.0,57,0.00,,SKC,0.00,VWS V14.01,2013-04-16 15:20:00,
2013-04-16 11:22:00,55.0,40.5,30.32,WNW,287,7.0,8.0,58,0.00,,SKC,0.00,VWS V14.01,2013-04-16 15:22:00,
2013-04-16 11:24:00,55.0,40.5,30.32,WSW,257,3.0,8.0,58,0.00,,SKC,0.00,VWS V14.01,2013-04-16 15:24:00,
2013-04-16 11:25:00,55.0,40.5,30.32,WSW,256,6.0,8.0,58,0.00,,SKC,0.00,VWS V14.01,2013-04-16 15:25:00,
2013-04-16 11:27:00,54.8,40.3,30.32,WSW,244,7.0,8.0,58,0.00,,SKC,0.00,VWS V14.01,2013-04-16 15:27:00,
2013-04-16 11:29:00,54.8,41.2,30.30,WSW,248,7.0,8.0,60,0.00,,SKC,0.00,VWS V14.01,2013-04-16 15:29:00,
2013-04-16 11:30:00,54.8,41.2,30.30,WSW,251,5.0,8.0,60,0.00,,SKC,0.00,VWS V14.01,2013-04-16 15:30:00,
2013-04-16 11:33:00,55.4,41.3,30.30,West,264,4.0,8.0,59,0.00,,SKC,0.00,VWS V14.01,2013-04-16 15:33:00,
2013-04-16 11:35:00,55.4,40.9,30.30,West,267,2.0,8.0,58,0.00,,SKC,0.00,VWS V14.01,2013-04-16 15:35:00,
2013-04-16 11:38:00,55.6,41.5,30.30,WSW,257,1.0,10.0,59,0.00,,SKC,0.00,VWS V14.01,2013-04-16 15:38:00,
2013-04-16 11:40:00,55.6,41.1,30.30,West,264,11.0,12.0,58,0.00,,SKC,0.00,VWS V14.01,2013-04-16 15:40:00,
2013-04-16 11:41:00,55.4,40.9,30.30,West,267,6.0,8.0,58,0.00,,SKC,0.00,VWS V14.01,2013-04-16 15:41:00,
2013-04-16 11:42:00,55.4,40.9,30.30,West,265,6.0,8.0,58,0.00,,SKC,0.00,VWS V14.01,2013-04-16 15:42:00,
2013-04-16 11:43:00,55.4,41.3,30.30,West,264,2.0,10.0,59,0.00,,SKC,0.00,VWS V14.01,2013-04-16 15:43:00,
2013-04-16 11:45:00,55.4,41.3,30.29,West,261,8.0,10.0,59,0.00,,SKC,0.00,VWS V14.01,2013-04-16 15:45:00,
2013-04-16 11:46:00,55.4,41.3,30.29,West,271,5.0,12.0,59,0.00,,SKC,0.00,VWS V14.01,2013-04-16 15:46:00,
2013-04-16 11:47:00,55.3,41.2,30.29,SW,233,6.0,12.0,59,0.00,,SKC,0.00,VWS V14.01,2013-04-16 15:47:00,
2013-04-16 11:48:00,55.3,41.2,30.29,WSW,247,4.0,12.0,59,0.00,,SKC,0.00,VWS V14.01,2013-04-16 15:48:00,
2013-04-16 11:50:00,54.5,39.1,30.32,WSW,241,6.0,10.0,56,0.00,,SKC,0.00,VWS V14.01,2013-04-16 15:50:00,
2013-04-16 11:51:00,55.4,41.8,30.29,WSW,250,5.0,8.0,60,0.00,,SKC,0.00,VWS V14.01,2013-04-16 15:51:00,
2013-04-16 11:52:00,55.4,41.3,30.29,WSW,247,6.0,12.0,59,0.00,,SKC,0.00,VWS V14.01,2013-04-16 15:52:00,
2013-04-16 11:53:00,55.4,41.3,30.29,West,264,5.0,12.0,59,0.00,,SKC,0.00,VWS V14.01,2013-04-16 15:53:00,
2013-04-16 11:55:00,54.4,39.5,30.32,West,264,1.0,8.0,57,0.00,,SKC,0.00,VWS V14.01,2013-04-16 15:55:00,
2013-04-16 11:56:00,55.6,41.5,30.29,WSW,254,3.0,6.0,59,0.00,,SKC,0.00,VWS V14.01,2013-04-16 15:56:00,
2013-04-16 11:57:00,55.7,41.6,30.29,WSW,247,6.0,7.0,59,0.00,,SKC,0.00,VWS V14.01,2013-04-16 15:57:00,
2013-04-16 11:59:00,56.0,41.9,30.29,WSW,247,0.0,7.0,59,0.00,,SKC,0.00,VWS V14.01,2013-04-16 15:59:00,
2013-04-16 12:00:00,54.5,39.6,30.32,WSW,237,8.0,11.0,57,0.00,,SKC,0.00,VWS V14.01,2013-04-16 16:00:00,
2013-04-16 12:01:00,56.0,41.9,30.28,WSW,253,3.0,6.0,59,0.00,,SKC,0.00,VWS V14.01,2013-04-16 16:01:00,
2013-04-16 12:02:00,56.0,41.9,30.28,WSW,239,6.0,7.0,59,0.00,,SKC,0.00,VWS V14.01,2013-04-16 16:02:00,
2013-04-16 12:05:00,56.3,42.2,30.28,West,268,0.0,8.0,59,0.00,,SKC,0.00,VWS V14.01,2013-04-16 16:05:00,
2013-04-16 12:06:00,56.6,42.5,30.28,WSW,250,5.0,8.0,59,0.00,,SKC,0.00,VWS V14.01,2013-04-16 16:06:00,
2013-04-16 12:07:00,56.6,42.5,30.28,WSW,254,7.0,8.0,59,0.00,,SKC,0.00,VWS V14.01,2013-04-16 16:07:00,
2013-04-16 12:08:00,56.6,42.5,30.28,WSW,257,3.0,8.0,59,0.00,,SKC,0.00,VWS V14.01,2013-04-16 16:08:00,
2013-04-16 12:10:00,56.7,42.1,30.28,West,268,6.0,6.0,58,0.00,,SKC,0.00,VWS V14.01,2013-04-16 16:10:00,
2013-04-16 12:11:00,56.6,41.6,30.28,West,272,7.0,8.0,57,0.00,,SKC,0.00,VWS V14.01,2013-04-16 16:11:00,
2013-04-16 12:12:00,56.7,41.7,30.28,SW,234,7.0,8.0,57,0.00,,SKC,0.00,VWS V14.01,2013-04-16 16:12:00,
2013-04-16 12:13:00,56.7,41.7,30.28,WSW,241,6.0,8.0,57,0.00,,SKC,0.00,VWS V14.01,2013-04-16 16:13:00,
2013-04-16 12:14:00,56.7,41.7,30.28,WSW,244,6.0,10.0,57,0.00,,SKC,0.00,VWS V14.01,2013-04-16 16:14:00,
2013-04-16 12:15:00,56.9,41.4,30.27,WSW,246,8.0,8.0,56,0.00,,SKC,0.00,VWS V14.01,2013-04-16 16:15:00,
2013-04-16 12:17:00,56.7,41.7,30.27,WSW,247,2.0,8.0,57,0.00,,SKC,0.00,VWS V14.01,2013-04-16 16:17:00,
2013-04-16 12:18:00,56.7,41.7,30.27,West,264,2.0,8.0,57,0.00,,SKC,0.00,VWS V14.01,2013-04-16 16:18:00,
2013-04-16 12:19:00,56.7,41.7,30.27,WNW,287,6.0,8.0,57,0.00,,SKC,0.00,VWS V14.01,2013-04-16 16:19:00,
2013-04-16 12:20:00,56.7,41.7,30.27,WSW,243,6.0,7.0,57,0.00,,SKC,0.00,VWS V14.01,2013-04-16 16:20:00,
2013-04-16 12:23:00,56.7,41.7,30.27,WSW,243,11.0,11.0,57,0.00,,SKC,0.00,VWS V14.01,2013-04-16 16:23:00,
2013-04-16 12:24:00,56.5,41.5,30.27,WSW,243,6.0,11.0,57,0.00,,SKC,0.00,VWS V14.01,2013-04-16 16:24:00,
2013-04-16 12:25:00,56.6,42.5,30.27,SW,230,11.0,11.0,59,0.00,,SKC,0.00,VWS V14.01,2013-04-16 16:25:00,
2013-04-16 12:28:00,56.6,41.6,30.27,WSW,254,9.0,12.0,57,0.00,,SKC,0.00,VWS V14.01,2013-04-16 16:28:00,
2013-04-16 12:29:00,56.5,41.5,30.27,WSW,254,2.0,12.0,57,0.00,,SKC,0.00,VWS V14.01,2013-04-16 16:29:00,
2013-04-16 12:30:00,56.5,41.5,30.27,WSW,254,2.0,12.0,57,0.00,,SKC,0.00,VWS V14.01,2013-04-16 16:30:00,
2013-04-16 12:33:00,57.0,41.9,30.27,WSW,247,5.0,10.0,57,0.00,,SKC,0.00,VWS V14.01,2013-04-16 16:33:00,
2013-04-16 12:34:00,57.2,41.7,30.27,WSW,246,8.0,11.0,56,0.00,,SKC,0.00,VWS V14.01,2013-04-16 16:34:00,
2013-04-16 12:35:00,57.2,41.7,30.27,WSW,237,3.0,11.0,56,0.00,,SKC,0.00,VWS V14.01,2013-04-16 16:35:00,
2013-04-16 12:36:00,57.0,41.9,30.27,West,265,11.0,11.0,57,0.00,,SKC,0.00,VWS V14.01,2013-04-16 16:36:00,
2013-04-16 12:38:00,56.7,41.7,30.27,West,263,7.0,11.0,57,0.00,,SKC,0.00,VWS V14.01,2013-04-16 16:38:00,
2013-04-16 12:39:00,56.7,41.7,30.27,SW,233,5.0,11.0,57,0.00,,SKC,0.00,VWS V14.01,2013-04-16 16:39:00,
2013-04-16 12:40:00,56.7,41.7,30.27,WSW,243,3.0,11.0,57,0.00,,SKC,0.00,VWS V14.01,2013-04-16 16:40:00,
2013-04-16 12:41:00,56.7,41.7,30.27,WSW,256,5.0,11.0,57,0.00,,SKC,0.00,VWS V14.01,2013-04-16 16:41:00,
2013-04-16 12:43:00,56.5,41.5,30.27,WSW,253,3.0,11.0,57,0.00,,SKC,0.00,VWS V14.01,2013-04-16 16:43:00,
2013-04-16 12:44:00,56.6,41.6,30.26,West,263,3.0,11.0,57,0.00,,SKC,0.00,VWS V14.01,2013-04-16 16:44:00,
2013-04-16 12:45:00,56.6,42.0,30.26,WSW,257,4.0,11.0,58,0.00,,SKC,0.00,VWS V14.01,2013-04-16 16:45:00,
2013-04-16 12:46:00,56.6,42.0,30.26,West,271,5.0,11.0,58,0.00,,SKC,0.00,VWS V14.01,2013-04-16 16:46:00,
2013-04-16 12:47:00,56.9,42.3,30.26,SW,230,7.0,11.0,58,0.00,,SKC,0.00,VWS V14.01,2013-04-16 16:47:00,
2013-04-16 12:49:00,56.9,41.8,30.26,SW,230,7.0,11.0,57,0.00,,SKC,0.00,VWS V14.01,2013-04-16 16:49:00,
2013-04-16 12:50:00,56.9,41.8,30.26,WSW,250,3.0,14.0,57,0.00,,SKC,0.00,VWS V14.01,2013-04-16 16:50:00,
2013-04-16 12:52:00,56.7,41.7,30.26,SW,234,7.0,14.0,57,0.00,,SKC,0.00,VWS V14.01,2013-04-16 16:52:00,
2013-04-16 12:54:00,56.6,42.0,30.26,West,274,4.0,14.0,58,0.00,,SKC,0.00,VWS V14.01,2013-04-16 16:54:00,
2013-04-16 12:55:00,56.9,41.4,30.26,WSW,246,5.0,11.0,56,0.00,,SKC,0.00,VWS V14.01,2013-04-16 16:55:00,
2013-04-16 12:57:00,57.0,41.5,30.26,West,281,5.0,11.0,56,0.00,,SKC,0.00,VWS V14.01,2013-04-16 16:57:00,
2013-04-16 12:59:00,57.3,42.7,30.25,West,261,4.0,11.0,58,0.00,,SKC,0.00,VWS V14.01,2013-04-16 16:59:00,
2013-04-16 13:00:00,57.3,42.7,30.25,West,268,5.0,11.0,58,0.00,,SKC,0.00,VWS V14.01,2013-04-16 17:00:00,
2013-04-16 13:01:00,57.5,42.8,30.25,West,272,6.0,11.0,58,0.00,,SKC,0.00,VWS V14.01,2013-04-16 17:01:00,
2013-04-16 13:02:00,57.3,41.8,30.25,WSW,253,8.0,11.0,56,0.00,,SKC,0.00,VWS V14.01,2013-04-16 17:02:00,
2013-04-16 13:05:00,57.3,41.8,30.25,WSW,256,8.0,12.0,56,0.00,,SKC,0.00,VWS V14.01,2013-04-16 17:05:00,
2013-04-16 13:06:00,57.3,41.8,30.25,WSW,253,6.0,10.0,56,0.00,,SKC,0.00,VWS V14.01,2013-04-16 17:06:00,
2013-04-16 13:07:00,57.2,41.7,30.25,WSW,248,6.0,10.0,56,0.00,,SKC,0.00,VWS V14.01,2013-04-16 17:07:00,
2013-04-16 13:08:00,57.2,41.7,30.25,WSW,248,6.0,10.0,56,0.00,,SKC,0.00,VWS V14.01,2013-04-16 17:08:00,
2013-04-16 13:10:00,57.5,42.4,30.25,WSW,248,8.0,10.0,57,0.00,,SKC,0.00,VWS V14.01,2013-04-16 17:10:00,
2013-04-16 13:11:00,57.5,42.4,30.25,WSW,251,3.0,8.0,57,0.00,,SKC,0.00,VWS V14.01,2013-04-16 17:11:00,
2013-04-16 13:13:00,57.8,42.2,30.25,WSW,239,5.0,11.0,56,0.00,,SKC,0.00,VWS V14.01,2013-04-16 17:13:00,
2013-04-16 13:15:00,57.6,42.0,30.24,WSW,253,6.0,11.0,56,0.00,,SKC,0.00,VWS V14.01,2013-04-16 17:15:00,
2013-04-16 13:16:00,57.3,41.3,30.24,SW,236,5.0,17.0,55,0.00,,SKC,0.00,VWS V14.01,2013-04-16 17:16:00,
2013-04-16 13:18:00,57.2,41.7,30.24,West,261,6.0,17.0,56,0.00,,SKC,0.00,VWS V14.01,2013-04-16 17:18:00,
2013-04-16 13:19:00,57.2,41.7,30.24,WSW,257,2.0,17.0,56,0.00,,SKC,0.00,VWS V14.01,2013-04-16 17:19:00,
2013-04-16 13:20:00,57.2,41.7,30.24,WSW,240,11.0,11.0,56,0.00,,SKC,0.00,VWS V14.01,2013-04-16 17:20:00,
2013-04-16 13:21:00,57.2,41.7,30.24,WSW,253,3.0,11.0,56,0.00,,SKC,0.00,VWS V14.01,2013-04-16 17:21:00,
2013-04-16 13:22:00,57.2,41.7,30.24,WSW,257,3.0,11.0,56,0.00,,SKC,0.00,VWS V14.01,2013-04-16 17:22:00,
2013-04-16 13:23:00,56.9,41.4,30.24,WSW,239,7.0,12.0,56,0.00,,SKC,0.00,VWS V14.01,2013-04-16 17:23:00,
2013-04-16 13:24:00,56.9,41.4,30.24,WSW,239,7.0,12.0,56,0.00,,SKC,0.00,VWS V14.01,2013-04-16 17:24:00,
2013-04-16 13:25:00,56.5,42.4,30.27,SW,219,3.0,11.0,59,0.00,,SKC,0.00,VWS V14.01,2013-04-16 17:25:00,
2013-04-16 13:26:00,56.7,41.7,30.24,WSW,240,5.0,12.0,57,0.00,,SKC,0.00,VWS V14.01,2013-04-16 17:26:00,
2013-04-16 13:27:00,57.0,41.9,30.24,West,268,8.0,12.0,57,0.00,,SKC,0.00,VWS V14.01,2013-04-16 17:27:00,
2013-04-16 13:28:00,57.3,42.7,30.24,WSW,240,4.0,12.0,58,0.00,,SKC,0.00,VWS V14.01,2013-04-16 17:28:00,
2013-04-16 13:29:00,57.5,42.4,30.24,WSW,247,7.0,12.0,57,0.00,,SKC,0.00,VWS V14.01,2013-04-16 17:29:00,
2013-04-16 13:30:00,56.5,41.5,30.27,WSW,246,4.0,12.0,57,0.00,,SKC,0.00,VWS V14.01,2013-04-16 17:30:00,
2013-04-16 13:31:00,57.8,42.7,30.23,SW,234,7.0,11.0,57,0.00,,SKC,0.00,VWS V14.01,2013-04-16 17:31:00,
2013-04-16 13:32:00,57.8,42.7,30.23,West,263,6.0,11.0,57,0.00,,SKC,0.00,VWS V14.01,2013-04-16 17:32:00,
2013-04-16 13:33:00,57.6,42.0,30.23,WSW,247,2.0,11.0,56,0.00,,SKC,0.00,VWS V14.01,2013-04-16 17:33:00,
2013-04-16 13:34:00,57.6,42.0,30.23,West,268,4.0,11.0,56,0.00,,SKC,0.00,VWS V14.01,2013-04-16 17:34:00,
2013-04-16 13:35:00,57.2,41.7,30.27,WSW,237,3.0,11.0,56,0.00,,SKC,0.00,VWS V14.01,2013-04-16 17:35:00,
2013-04-16 13:37:00,57.0,41.9,30.23,WSW,240,8.0,12.0,57,0.00,,SKC,0.00,VWS V14.01,2013-04-16 17:37:00,
2013-04-16 13:39:00,57.0,42.4,30.23,WSW,253,8.0,12.0,58,0.00,,SKC,0.00,VWS V14.01,2013-04-16 17:39:00,
2013-04-16 13:40:00,56.7,41.7,30.27,WSW,254,3.0,11.0,57,0.00,,SKC,0.00,VWS V14.01,2013-04-16 17:40:00,
2013-04-16 13:42:00,57.5,42.4,30.23,SW,222,5.0,8.0,57,0.00,,SKC,0.00,VWS V14.01,2013-04-16 17:42:00,
2013-04-16 13:44:00,58.0,42.9,30.23,WSW,247,5.0,10.0,57,0.00,,SKC,0.00,VWS V14.01,2013-04-16 17:44:00,
2013-04-16 13:45:00,58.1,42.5,30.23,WSW,241,5.0,5.0,56,0.00,,SKC,0.00,VWS V14.01,2013-04-16 17:45:00,
2013-04-16 13:47:00,58.0,41.9,30.23,WSW,243,7.0,10.0,55,0.00,,SKC,0.00,VWS V14.01,2013-04-16 17:47:00,
2013-04-16 13:48:00,57.8,41.8,30.23,WSW,248,12.0,12.0,55,0.00,,SKC,0.00,VWS V14.01,2013-04-16 17:48:00,
2013-04-16 13:49:00,57.5,41.9,30.23,WSW,253,3.0,12.0,56,0.00,,SKC,0.00,VWS V14.01,2013-04-16 17:49:00,
2013-04-16 13:50:00,57.5,41.9,30.23,SW,216,5.0,6.0,56,0.00,,SKC,0.00,VWS V14.01,2013-04-16 17:50:00,
2013-04-16 13:51:00,57.5,41.9,30.23,WSW,239,6.0,6.0,56,0.00,,SKC,0.00,VWS V14.01,2013-04-16 17:51:00,
2013-04-16 13:53:00,58.1,42.5,30.23,WSW,248,3.0,7.0,56,0.00,,SKC,0.00,VWS V14.01,2013-04-16 17:53:00,
2013-04-16 13:55:00,58.3,42.2,30.23,WSW,248,3.0,8.0,55,0.00,,SKC,0.00,VWS V14.01,2013-04-16 17:55:00,
2013-04-16 13:56:00,58.1,42.0,30.23,West,278,5.0,10.0,55,0.00,,SKC,0.00,VWS V14.01,2013-04-16 17:56:00,
2013-04-16 13:58:00,58.0,41.9,30.23,WSW,256,7.0,10.0,55,0.00,,SKC,0.00,VWS V14.01,2013-04-16 17:58:00,
2013-04-16 14:00:00,58.0,42.4,30.23,West,265,9.0,11.0,56,0.00,,SKC,0.00,VWS V14.01,2013-04-16 18:00:00,
2013-04-16 14:01:00,57.6,42.0,30.23,WSW,239,8.0,9.0,56,0.00,,SKC,0.00,VWS V14.01,2013-04-16 18:01:00,
2013-04-16 14:03:00,57.8,42.2,30.23,West,264,11.0,11.0,56,0.00,,SKC,0.00,VWS V14.01,2013-04-16 18:03:00,
2013-04-16 14:05:00,57.6,42.0,30.23,WSW,241,5.0,11.0,56,0.00,,SKC,0.00,VWS V14.01,2013-04-16 18:05:00,
2013-04-16 14:07:00,57.6,42.0,30.23,WSW,237,5.0,7.0,56,0.00,,SKC,0.00,VWS V14.01,2013-04-16 18:07:00,
2013-04-16 14:08:00,57.6,42.0,30.23,West,275,2.0,7.0,56,0.00,,SKC,0.00,VWS V14.01,2013-04-16 18:08:00,
2013-04-16 14:09:00,57.6,42.5,30.23,WSW,251,8.0,8.0,57,0.00,,SKC,0.00,VWS V14.01,2013-04-16 18:09:00,
2013-04-16 14:10:00,57.8,42.2,30.23,WSW,246,8.0,8.0,56,0.00,,SKC,0.00,VWS V14.01,2013-04-16 18:10:00,
2013-04-16 14:12:00,58.0,42.4,30.23,West,261,8.0,9.0,56,0.00,,SKC,0.00,VWS V14.01,2013-04-16 18:12:00,
2013-04-16 14:13:00,57.8,42.2,30.23,WNW,291,7.0,9.0,56,0.00,,SKC,0.00,VWS V14.01,2013-04-16 18:13:00,
2013-04-16 14:14:00,57.6,42.0,30.23,WSW,240,5.0,9.0,56,0.00,,SKC,0.00,VWS V14.01,2013-04-16 18:14:00,
2013-04-16 14:15:00,57.5,42.4,30.23,WSW,253,2.0,6.0,57,0.00,,SKC,0.00,VWS V14.01,2013-04-16 18:15:00,
2013-04-16 14:17:00,57.6,42.5,30.23,West,278,3.0,6.0,57,0.00,,SKC,0.00,VWS V14.01,2013-04-16 18:17:00,
2013-04-16 14:18:00,57.6,42.5,30.23,WSW,247,5.0,10.0,57,0.00,,SKC,0.00,VWS V14.01,2013-04-16 18:18:00,
2013-04-16 14:19:00,57.8,42.2,30.23,WSW,240,8.0,10.0,56,0.00,,SKC,0.00,VWS V14.01,2013-04-16 18:19:00,
2013-04-16 14:20:00,57.2,41.7,30.24,WSW,253,5.0,17.0,56,0.00,,SKC,0.00,VWS V14.01,2013-04-16 18:20:00,
2013-04-16 14:21:00,57.6,42.0,30.23,WSW,246,5.0,8.0,56,0.00,,SKC,0.00,VWS V14.01,2013-04-16 18:21:00,
2013-04-16 14:23:00,57.6,42.0,30.23,WSW,240,2.0,8.0,56,0.00,,SKC,0.00,VWS V14.01,2013-04-16 18:23:00,
2013-04-16 14:25:00,57.6,42.0,30.23,WSW,243,4.0,11.0,56,0.00,,SKC,0.00,VWS V14.01,2013-04-16 18:25:00,
2013-04-16 14:26:00,57.8,42.7,30.23,WSW,244,2.0,5.0,57,0.00,,SKC,0.00,VWS V14.01,2013-04-16 18:26:00,
2013-04-16 14:29:00,58.3,42.7,30.23,West,280,1.0,5.0,56,0.00,,SKC,0.00,VWS V14.01,2013-04-16 18:29:00,
2013-04-16 14:30:00,58.4,42.8,30.22,WSW,246,5.0,5.0,56,0.00,,SKC,0.00,VWS V14.01,2013-04-16 18:30:00,
2013-04-16 14:32:00,58.4,42.3,30.22,West,265,5.0,9.0,55,0.00,,SKC,0.00,VWS V14.01,2013-04-16 18:32:00,
2013-04-16 14:34:00,58.1,42.0,30.22,WSW,253,7.0,13.0,55,0.00,,SKC,0.00,VWS V14.01,2013-04-16 18:34:00,
2013-04-16 14:35:00,58.0,42.4,30.22,WSW,240,4.0,13.0,56,0.00,,SKC,0.00,VWS V14.01,2013-04-16 18:35:00,
2013-04-16 14:37:00,57.8,42.2,30.22,SW,233,6.0,11.0,56,0.00,,SKC,0.00,VWS V14.01,2013-04-16 18:37:00,
2013-04-16 14:39:00,57.6,42.0,30.22,WSW,239,10.0,11.0,56,0.00,,SKC,0.00,VWS V14.01,2013-04-16 18:39:00,
2013-04-16 14:40:00,57.6,42.0,30.22,WSW,244,5.0,11.0,56,0.00,,SKC,0.00,VWS V14.01,2013-04-16 18:40:00,
2013-04-16 14:42:00,57.8,42.7,30.22,WSW,250,6.0,7.0,57,0.00,,SKC,0.00,VWS V14.01,2013-04-16 18:42:00,
2013-04-16 14:44:00,58.0,42.9,30.21,WSW,257,7.0,12.0,57,0.00,,SKC,0.00,VWS V14.01,2013-04-16 18:44:00,
2013-04-16 14:45:00,57.8,42.7,30.21,WSW,258,6.0,12.0,57,0.00,,SKC,0.00,VWS V14.01,2013-04-16 18:45:00,
2013-04-16 14:47:00,57.8,42.7,30.21,West,267,3.0,12.0,57,0.00,,SKC,0.00,VWS V14.01,2013-04-16 18:47:00,
2013-04-16 14:48:00,57.8,42.7,30.21,WSW,244,5.0,12.0,57,0.00,,SKC,0.00,VWS V14.01,2013-04-16 18:48:00,
2013-04-16 14:50:00,58.0,42.4,30.21,WSW,253,10.0,12.0,56,0.00,,SKC,0.00,VWS V14.01,2013-04-16 18:50:00,
2013-04-16 14:52:00,58.1,42.0,30.21,WSW,258,7.0,9.0,55,0.00,,SKC,0.00,VWS V14.01,2013-04-16 18:52:00,
2013-04-16 14:53:00,58.1,42.0,30.21,WSW,241,5.0,9.0,55,0.00,,SKC,0.00,VWS V14.01,2013-04-16 18:53:00,
2013-04-16 14:55:00,58.4,42.8,30.21,WSW,239,6.0,9.0,56,0.00,,SKC,0.00,VWS V14.01,2013-04-16 18:55:00,
2013-04-16 14:58:00,58.6,42.0,30.21,WSW,250,5.0,11.0,54,0.00,,SKC,0.00,VWS V14.01,2013-04-16 18:58:00,
2013-04-16 15:00:00,58.6,42.0,30.21,WSW,241,7.0,11.0,54,0.00,,SKC,0.00,VWS V14.01,2013-04-16 19:00:00,
2013-04-16 15:02:00,58.4,41.8,30.21,WSW,254,10.0,12.0,54,0.00,,SKC,0.00,VWS V14.01,2013-04-16 19:02:00,
2013-04-16 15:03:00,58.3,41.8,30.21,SW,230,6.0,12.0,54,0.00,,SKC,0.00,VWS V14.01,2013-04-16 19:03:00,
2013-04-16 15:05:00,57.6,42.0,30.23,WSW,241,5.0,11.0,56,0.00,,SKC,0.00,VWS V14.01,2013-04-16 19:05:00,
2013-04-16 15:06:00,58.3,41.8,30.21,West,271,5.0,6.0,54,0.00,,SKC,0.00,VWS V14.01,2013-04-16 19:06:00,
2013-04-16 15:07:00,58.3,41.8,30.21,WSW,248,2.0,8.0,54,0.00,,SKC,0.00,VWS V14.01,2013-04-16 19:07:00,
2013-04-16 15:08:00,58.3,42.2,30.21,WSW,248,6.0,8.0,55,0.00,,SKC,0.00,VWS V14.01,2013-04-16 19:08:00,
2013-04-16 15:10:00,58.4,42.3,30.21,SW,222,5.0,7.0,55,0.00,,SKC,0.00,VWS V14.01,2013-04-16 19:10:00,
2013-04-16 15:11:00,58.4,42.3,30.21,West,260,3.0,7.0,55,0.00,,SKC,0.00,VWS V14.01,2013-04-16 19:11:00,
2013-04-16 15:12:00,58.3,41.8,30.21,West,265,7.0,7.0,54,0.00,,SKC,0.00,VWS V14.01,2013-04-16 19:12:00,
2013-04-16 15:13:00,58.1,41.6,30.21,WSW,247,7.0,13.0,54,0.00,,SKC,0.00,VWS V14.01,2013-04-16 19:13:00,
2013-04-16 15:15:00,58.1,42.0,30.20,SW,227,3.0,5.0,55,0.00,,SKC,0.00,VWS V14.01,2013-04-16 19:15:00,
2013-04-16 15:16:00,58.3,42.2,30.20,SW,233,7.0,9.0,55,0.00,,SKC,0.00,VWS V14.01,2013-04-16 19:16:00,
2013-04-16 15:18:00,58.3,42.2,30.20,WSW,244,7.0,12.0,55,0.00,,SKC,0.00,VWS V14.01,2013-04-16 19:18:00,
2013-04-16 15:19:00,58.3,41.8,30.20,West,263,12.0,14.0,54,0.00,,SKC,0.00,VWS V14.01,2013-04-16 19:19:00,
2013-04-16 15:20:00,58.1,41.6,30.20,WSW,250,6.0,8.0,54,0.00,,SKC,0.00,VWS V14.01,2013-04-16 19:20:00,
2013-04-16 15:22:00,58.1,41.6,30.20,WSW,248,3.0,8.0,54,0.00,,SKC,0.00,VWS V14.01,2013-04-16 19:22:00,
2013-04-16 15:23:00,58.3,42.7,30.20,WSW,253,6.0,8.0,56,0.00,,SKC,0.00,VWS V14.01,2013-04-16 19:23:00,
2013-04-16 15:24:00,58.3,42.7,30.20,West,263,5.0,8.0,56,0.00,,SKC,0.00,VWS V14.01,2013-04-16 19:24:00,
2013-04-16 15:25:00,57.6,42.0,30.23,WSW,241,3.0,11.0,56,0.00,,SKC,0.00,VWS V14.01,2013-04-16 19:25:00,
2013-04-16 15:26:00,58.4,42.3,30.20,WSW,243,5.0,7.0,55,0.00,,SKC,0.00,VWS V14.01,2013-04-16 19:26:00,
2013-04-16 15:27:00,58.4,42.3,30.20,WSW,243,13.0,14.0,55,0.00,,SKC,0.00,VWS V14.01,2013-04-16 19:27:00,
2013-04-16 15:28:00,58.3,42.2,30.20,WSW,241,11.0,14.0,55,0.00,,SKC,0.00,VWS V14.01,2013-04-16 19:28:00,
2013-04-16 15:29:00,58.0,41.9,30.20,WSW,253,5.0,14.0,55,0.00,,SKC,0.00,VWS V14.01,2013-04-16 19:29:00,
2013-04-16 15:30:00,58.0,41.9,30.20,WSW,247,8.0,14.0,55,0.00,,SKC,0.00,VWS V14.01,2013-04-16 19:30:00,
2013-04-16 15:31:00,57.8,41.8,30.20,WSW,244,6.0,8.0,55,0.00,,SKC,0.00,VWS V14.01,2013-04-16 19:31:00,
2013-04-16 15:32:00,58.0,41.9,30.20,West,261,4.0,8.0,55,0.00,,SKC,0.00,VWS V14.01,2013-04-16 19:32:00,
2013-04-16 15:33:00,58.1,42.0,30.20,WSW,250,5.0,8.0,55,0.00,,SKC,0.00,VWS V14.01,2013-04-16 19:33:00,
2013-04-16 15:34:00,58.3,42.2,30.20,West,265,4.0,8.0,55,0.00,,SKC,0.00,VWS V14.01,2013-04-16 19:34:00,
2013-04-16 15:35:00,58.3,42.2,30.20,West,261,10.0,10.0,55,0.00,,SKC,0.00,VWS V14.01,2013-04-16 19:35:00,
2013-04-16 15:36:00,58.3,41.8,30.20,WSW,251,7.0,12.0,54,0.00,,SKC,0.00,VWS V14.01,2013-04-16 19:36:00,
2013-04-16 15:38:00,58.1,41.6,30.20,WSW,247,6.0,12.0,54,0.00,,SKC,0.00,VWS V14.01,2013-04-16 19:38:00,
2013-04-16 15:39:00,58.4,42.3,30.20,West,271,3.0,12.0,55,0.00,,SKC,0.00,VWS V14.01,2013-04-16 19:39:00,
2013-04-16 15:40:00,58.6,42.5,30.20,WSW,257,11.0,12.0,55,0.00,,SKC,0.00,VWS V14.01,2013-04-16 19:40:00,
2013-04-16 15:41:00,58.6,42.5,30.20,WNW,295,5.0,12.0,55,0.00,,SKC,0.00,VWS V14.01,2013-04-16 19:41:00,
2013-04-16 15:43:00,58.6,42.5,30.20,West,271,8.0,12.0,55,0.00,,SKC,0.00,VWS V14.01,2013-04-16 19:43:00,
2013-04-16 15:45:00,58.6,42.5,30.20,West,270,11.0,11.0,55,0.00,,SKC,0.00,VWS V14.01,2013-04-16 19:45:00,
2013-04-16 15:47:00,58.3,42.2,30.20,WSW,258,6.0,12.0,55,0.00,,SKC,0.00,VWS V14.01,2013-04-16 19:47:00,
2013-04-16 15:49:00,58.1,42.5,30.20,WSW,257,2.0,12.0,56,0.00,,SKC,0.00,VWS V14.01,2013-04-16 19:49:00,
2013-04-16 15:50:00,58.3,42.7,30.20,West,271,7.0,10.0,56,0.00,,SKC,0.00,VWS V14.01,2013-04-16 19:50:00,
2013-04-16 15:52:00,58.1,42.5,30.20,West,261,6.0,10.0,56,0.00,,SKC,0.00,VWS V14.01,2013-04-16 19:52:00,
2013-04-16 15:54:00,58.0,42.9,30.20,WSW,241,0.0,10.0,57,0.00,,SKC,0.00,VWS V14.01,2013-04-16 19:54:00,
2013-04-16 15:55:00,58.0,43.3,30.20,WSW,248,2.0,5.0,58,0.00,,SKC,0.00,VWS V14.01,2013-04-16 19:55:00,
2013-04-16 15:56:00,58.1,43.4,30.20,WSW,251,1.0,5.0,58,0.00,,SKC,0.00,VWS V14.01,2013-04-16 19:56:00,
2013-04-16 15:57:00,58.3,43.6,30.20,West,267,7.0,7.0,58,0.00,,SKC,0.00,VWS V14.01,2013-04-16 19:57:00,
2013-04-16 15:58:00,58.3,43.6,30.20,WSW,244,6.0,7.0,58,0.00,,SKC,0.00,VWS V14.01,2013-04-16 19:58:00,
2013-04-16 16:00:00,58.3,43.6,30.19,SW,236,7.0,10.0,58,0.00,,SKC,0.00,VWS V14.01,2013-04-16 20:00:00,
2013-04-16 16:01:00,58.1,43.4,30.19,WSW,244,8.0,9.0,58,0.00,,SKC,0.00,VWS V14.01,2013-04-16 20:01:00,
2013-04-16 16:03:00,57.6,43.0,30.19,WSW,244,9.0,11.0,58,0.00,,SKC,0.00,VWS V14.01,2013-04-16 20:03:00,
2013-04-16 16:05:00,57.5,43.3,30.19,WSW,258,5.0,5.0,59,0.00,,SKC,0.00,VWS V14.01,2013-04-16 20:05:00,
2013-04-16 16:06:00,57.5,43.7,30.19,West,275,9.0,10.0,60,0.00,,SKC,0.00,VWS V14.01,2013-04-16 20:06:00,
2013-04-16 16:08:00,57.3,43.5,30.19,West,270,6.0,10.0,60,0.00,,SKC,0.00,VWS V14.01,2013-04-16 20:08:00,
2013-04-16 16:10:00,57.0,43.3,30.19,West,267,5.0,6.0,60,0.00,,SKC,0.00,VWS V14.01,2013-04-16 20:10:00,
2013-04-16 16:11:00,57.0,43.3,30.19,West,278,6.0,10.0,60,0.00,,SKC,0.00,VWS V14.01,2013-04-16 20:11:00,
2013-04-16 16:13:00,56.9,43.2,30.19,WSW,253,3.0,10.0,60,0.00,,SKC,0.00,VWS V14.01,2013-04-16 20:13:00,
2013-04-16 16:14:00,56.9,43.2,30.19,WSW,253,4.0,10.0,60,0.00,,SKC,0.00,VWS V14.01,2013-04-16 20:14:00,
2013-04-16 16:15:00,57.0,43.7,30.17,West,278,3.0,6.0,61,0.00,,SKC,0.00,VWS V14.01,2013-04-16 20:15:00,
2013-04-16 16:17:00,57.0,43.7,30.17,West,271,3.0,6.0,61,0.00,,SKC,0.00,VWS V14.01,2013-04-16 20:17:00,
2013-04-16 16:18:00,57.0,43.7,30.17,WSW,254,2.0,6.0,61,0.00,,SKC,0.00,VWS V14.01,2013-04-16 20:18:00,
2013-04-16 16:19:00,57.0,43.7,30.17,WSW,246,5.0,7.0,61,0.00,,SKC,0.00,VWS V14.01,2013-04-16 20:19:00,
2013-04-16 16:20:00,57.0,43.7,30.17,WSW,248,12.0,13.0,61,0.00,,SKC,0.00,VWS V14.01,2013-04-16 20:20:00,
2013-04-16 16:22:00,56.7,43.4,30.17,WSW,257,6.0,14.0,61,0.00,,SKC,0.00,VWS V14.01,2013-04-16 20:22:00,
2013-04-16 16:23:00,56.6,43.3,30.17,WSW,258,11.0,14.0,61,0.00,,SKC,0.00,VWS V14.01,2013-04-16 20:23:00,
2013-04-16 16:24:00,56.6,43.8,30.17,WSW,241,5.0,14.0,62,0.00,,SKC,0.00,VWS V14.01,2013-04-16 20:24:00,
2013-04-16 16:25:00,56.6,43.8,30.17,WSW,254,2.0,14.0,62,0.00,,SKC,0.00,VWS V14.01,2013-04-16 20:25:00,
2013-04-16 16:27:00,56.9,44.0,30.17,WSW,257,6.0,7.0,62,0.00,,SKC,0.00,VWS V14.01,2013-04-16 20:27:00,
2013-04-16 16:30:00,56.9,44.0,30.16,West,260,1.0,12.0,62,0.00,,SKC,0.00,VWS V14.01,2013-04-16 20:30:00,
2013-04-16 16:32:00,56.7,43.8,30.16,WSW,251,3.0,7.0,62,0.00,,SKC,0.00,VWS V14.01,2013-04-16 20:32:00,
2013-04-16 16:35:00,56.9,44.5,30.16,West,263,3.0,6.0,63,0.00,,SKC,0.00,VWS V14.01,2013-04-16 20:35:00,
2013-04-16 16:36:00,56.9,44.5,30.16,WSW,240,6.0,8.0,63,0.00,,SKC,0.00,VWS V14.01,2013-04-16 20:36:00,
2013-04-16 16:38:00,56.7,44.3,30.16,WSW,241,3.0,8.0,63,0.00,,SKC,0.00,VWS V14.01,2013-04-16 20:38:00,
2013-04-16 16:40:00,56.9,44.9,30.16,West,278,4.0,5.0,64,0.00,,SKC,0.00,VWS V14.01,2013-04-16 20:40:00,
2013-04-16 16:41:00,56.9,44.9,30.16,WSW,246,3.0,5.0,64,0.00,,SKC,0.00,VWS V14.01,2013-04-16 20:41:00,
2013-04-16 16:44:00,56.7,44.3,30.16,SW,234,6.0,8.0,63,0.00,,SKC,0.00,VWS V14.01,2013-04-16 20:44:00,
2013-04-16 16:45:00,58.6,42.5,30.20,West,270,11.0,12.0,55,0.00,,SKC,0.00,VWS V14.01,2013-04-16 20:45:00,
2013-04-16 16:46:00,56.6,44.6,30.16,WSW,248,5.0,7.0,64,0.00,,SKC,0.00,VWS V14.01,2013-04-16 20:46:00,
2013-04-16 16:47:00,56.6,44.6,30.16,WSW,248,5.0,7.0,64,0.00,,SKC,0.00,VWS V14.01,2013-04-16 20:47:00,
2013-04-16 16:50:00,56.5,44.5,30.16,West,261,5.0,8.0,64,0.00,,SKC,0.00,VWS V14.01,2013-04-16 20:50:00,
2013-04-16 16:52:00,56.3,44.3,30.16,WSW,243,7.0,10.0,64,0.00,,SKC,0.00,VWS V14.01,2013-04-16 20:52:00,
2013-04-16 16:55:00,56.2,44.2,30.16,WSW,253,5.0,10.0,64,0.00,,SKC,0.00,VWS V14.01,2013-04-16 20:55:00,
2013-04-16 16:57:00,56.2,44.2,30.16,WSW,256,5.0,8.0,64,0.00,,SKC,0.00,VWS V14.01,2013-04-16 20:57:00,
2013-04-16 16:59:00,56.2,44.2,30.16,West,261,2.0,8.0,64,0.00,,SKC,0.00,VWS V14.01,2013-04-16 20:59:00,
2013-04-16 17:00:00,58.3,43.6,30.19,West,263,9.0,10.0,58,0.00,,SKC,0.00,VWS V14.01,2013-04-16 21:00:00,
2013-04-16 17:02:00,56.3,44.3,30.16,WSW,258,6.0,11.0,64,0.00,,SKC,0.00,VWS V14.01,2013-04-16 21:02:00,
2013-04-16 17:03:00,56.2,44.2,30.16,West,268,2.0,11.0,64,0.00,,SKC,0.00,VWS V14.01,2013-04-16 21:03:00,
2013-04-16 17:05:00,56.2,44.2,30.16,WSW,258,8.0,11.0,64,0.00,,SKC,0.00,VWS V14.01,2013-04-16 21:05:00,
2013-04-16 17:07:00,56.2,44.2,30.16,West,263,5.0,9.0,64,0.00,,SKC,0.00,VWS V14.01,2013-04-16 21:07:00,
2013-04-16 17:08:00,56.2,44.2,30.16,WSW,246,5.0,9.0,64,0.00,,SKC,0.00,VWS V14.01,2013-04-16 21:08:00,
2013-04-16 17:10:00,56.2,44.2,30.16,West,272,4.0,9.0,64,0.00,,SKC,0.00,VWS V14.01,2013-04-16 21:10:00,
2013-04-16 17:12:00,56.0,44.4,30.16,WNW,294,5.0,11.0,65,0.00,,SKC,0.00,VWS V14.01,2013-04-16 21:12:00,
2013-04-16 17:13:00,56.0,44.4,30.16,WNW,294,5.0,11.0,65,0.00,,SKC,0.00,VWS V14.01,2013-04-16 21:13:00,
2013-04-16 17:14:00,55.9,44.3,30.15,West,277,10.0,11.0,65,0.00,,SKC,0.00,VWS V14.01,2013-04-16 21:14:00,
2013-04-16 17:15:00,55.9,44.3,30.15,WSW,244,6.0,8.0,65,0.00,,SKC,0.00,VWS V14.01,2013-04-16 21:15:00,
2013-04-16 17:17:00,55.9,44.7,30.15,WSW,253,8.0,11.0,66,0.00,,SKC,0.00,VWS V14.01,2013-04-16 21:17:00,
2013-04-16 17:18:00,55.9,44.7,30.15,West,275,6.0,11.0,66,0.00,,SKC,0.00,VWS V14.01,2013-04-16 21:18:00,
2013-04-16 17:19:00,55.9,44.7,30.15,WSW,239,5.0,11.0,66,0.00,,SKC,0.00,VWS V14.01,2013-04-16 21:19:00,
2013-04-16 17:20:00,55.9,44.7,30.15,WSW,253,4.0,7.0,66,0.00,,SKC,0.00,VWS V14.01,2013-04-16 21:20:00,
2013-04-16 17:22:00,56.0,44.8,30.15,West,263,10.0,10.0,66,0.00,,SKC,0.00,VWS V14.01,2013-04-16 21:22:00,
2013-04-16 17:23:00,55.9,44.7,30.15,WSW,244,10.0,11.0,66,0.00,,SKC,0.00,VWS V14.01,2013-04-16 21:23:00,
2013-04-16 17:24:00,55.9,44.7,30.15,West,263,3.0,11.0,66,0.00,,SKC,0.00,VWS V14.01,2013-04-16 21:24:00,
2013-04-16 17:25:00,56.0,44.8,30.15,WSW,241,1.0,2.0,66,0.00,,SKC,0.00,VWS V14.01,2013-04-16 21:25:00,
2013-04-16 17:27:00,55.9,44.7,30.15,West,265,7.0,11.0,66,0.00,,SKC,0.00,VWS V14.01,2013-04-16 21:27:00,
2013-04-16 17:28:00,55.9,44.7,30.15,WSW,258,7.0,11.0,66,0.00,,SKC,0.00,VWS V14.01,2013-04-16 21:28:00,
2013-04-16 17:29:00,55.9,44.7,30.14,WSW,246,5.0,11.0,66,0.00,,SKC,0.00,VWS V14.01,2013-04-16 21:29:00,
2013-04-16 17:30:00,55.9,44.7,30.14,WSW,257,5.0,6.0,66,0.00,,SKC,0.00,VWS V14.01,2013-04-16 21:30:00,
2013-04-16 17:33:00,55.7,44.9,30.14,West,267,8.0,8.0,67,0.00,,SKC,0.00,VWS V14.01,2013-04-16 21:33:00,
2013-04-16 17:34:00,55.7,44.9,30.14,West,268,5.0,8.0,67,0.00,,SKC,0.00,VWS V14.01,2013-04-16 21:34:00,
2013-04-16 17:35:00,55.7,44.9,30.14,West,261,6.0,8.0,67,0.00,,SKC,0.00,VWS V14.01,2013-04-16 21:35:00,
2013-04-16 17:37:00,55.6,44.8,30.14,WSW,247,5.0,6.0,67,0.00,,SKC,0.00,VWS V14.01,2013-04-16 21:37:00,
2013-04-16 17:38:00,55.6,44.8,30.14,WSW,251,7.0,7.0,67,0.00,,SKC,0.00,VWS V14.01,2013-04-16 21:38:00,
2013-04-16 17:39:00,55.6,44.8,30.14,WSW,254,6.0,12.0,67,0.00,,SKC,0.00,VWS V14.01,2013-04-16 21:39:00,
2013-04-16 17:40:00,55.4,44.6,30.14,West,265,4.0,8.0,67,0.00,,SKC,0.00,VWS V14.01,2013-04-16 21:40:00,
2013-04-16 17:42:00,55.4,45.0,30.14,WSW,251,3.0,8.0,68,0.00,,SKC,0.00,VWS V14.01,2013-04-16 21:42:00,
2013-04-16 17:43:00,55.4,45.0,30.14,West,271,3.0,16.0,68,0.00,,SKC,0.00,VWS V14.01,2013-04-16 21:43:00,
2013-04-16 17:44:00,55.4,45.0,30.14,West,267,4.0,16.0,68,0.00,,SKC,0.00,VWS V14.01,2013-04-16 21:44:00,
2013-04-16 17:45:00,55.4,45.0,30.13,WSW,254,7.0,7.0,68,0.00,,SKC,0.00,VWS V14.01,2013-04-16 21:45:00,
2013-04-16 17:47:00,55.3,44.9,30.13,WSW,256,3.0,7.0,68,0.00,,SKC,0.00,VWS V14.01,2013-04-16 21:47:00,
2013-04-16 17:49:00,55.3,45.3,30.13,WSW,246,6.0,8.0,69,0.00,,SKC,0.00,VWS V14.01,2013-04-16 21:49:00,
2013-04-16 17:50:00,56.3,44.3,30.16,WSW,256,6.0,8.0,64,0.00,,SKC,0.00,VWS V14.01,2013-04-16 21:50:00,
2013-04-16 17:51:00,55.3,45.3,30.13,WSW,241,6.0,8.0,69,0.00,,SKC,0.00,VWS V14.01,2013-04-16 21:51:00,
2013-04-16 17:52:00,55.1,45.1,30.13,WSW,254,3.0,8.0,69,0.00,,SKC,0.00,VWS V14.01,2013-04-16 21:52:00,
2013-04-16 17:54:00,55.1,45.1,30.13,West,265,9.0,9.0,69,0.00,,SKC,0.00,VWS V14.01,2013-04-16 21:54:00,
2013-04-16 17:55:00,55.1,45.1,30.13,West,267,8.0,10.0,69,0.00,,SKC,0.00,VWS V14.01,2013-04-16 21:55:00,
2013-04-16 17:56:00,55.1,45.1,30.13,WSW,253,6.0,11.0,69,0.00,,SKC,0.00,VWS V14.01,2013-04-16 21:56:00,
2013-04-16 17:58:00,55.0,45.4,30.13,WSW,251,10.0,11.0,70,0.00,,SKC,0.00,VWS V14.01,2013-04-16 21:58:00,
2013-04-16 17:59:00,55.0,45.4,30.12,WSW,250,6.0,11.0,70,0.00,,SKC,0.00,VWS V14.01,2013-04-16 21:59:00,
2013-04-16 18:00:00,55.0,45.4,30.12,WSW,258,5.0,5.0,70,0.00,,SKC,0.00,VWS V14.01,2013-04-16 22:00:00,
2013-04-16 18:01:00,54.8,45.2,30.12,West,265,3.0,13.0,70,0.00,,SKC,0.00,VWS V14.01,2013-04-16 22:01:00,
2013-04-16 18:03:00,54.8,45.2,30.12,WSW,251,1.0,13.0,70,0.00,,SKC,0.00,VWS V14.01,2013-04-16 22:03:00,
2013-04-16 18:04:00,54.8,45.6,30.12,WSW,256,3.0,13.0,71,0.00,,SKC,0.00,VWS V14.01,2013-04-16 22:04:00,
2013-04-16 18:05:00,56.2,44.2,30.16,West,260,7.0,11.0,64,0.00,,SKC,0.00,VWS V14.01,2013-04-16 22:05:00,
2013-04-16 18:07:00,54.8,45.6,30.12,WSW,244,8.0,10.0,71,0.00,,SKC,0.00,VWS V14.01,2013-04-16 22:07:00,
2013-04-16 18:08:00,54.7,45.5,30.12,WSW,258,2.0,10.0,71,0.00,,SKC,0.00,VWS V14.01,2013-04-16 22:08:00,
2013-04-16 18:09:00,54.7,45.5,30.12,WSW,254,0.0,10.0,71,0.00,,SKC,0.00,VWS V14.01,2013-04-16 22:09:00,
2013-04-16 18:10:00,54.7,45.5,30.12,WSW,254,3.0,10.0,71,0.00,,SKC,0.00,VWS V14.01,2013-04-16 22:10:00,
2013-04-16 18:12:00,54.7,45.5,30.12,West,268,3.0,7.0,71,0.00,,SKC,0.00,VWS V14.01,2013-04-16 22:12:00,
2013-04-16 18:13:00,54.7,45.9,30.12,WSW,257,4.0,7.0,72,0.00,,SKC,0.00,VWS V14.01,2013-04-16 22:13:00,
2013-04-16 18:15:00,54.7,45.5,30.12,WSW,248,5.0,7.0,71,0.00,,SKC,0.00,VWS V14.01,2013-04-16 22:15:00,
2013-04-16 18:17:00,54.7,45.9,30.12,WSW,258,2.0,7.0,72,0.00,,SKC,0.00,VWS V14.01,2013-04-16 22:17:00,
2013-04-16 18:18:00,54.7,45.9,30.12,WSW,258,0.0,7.0,72,0.00,,SKC,0.00,VWS V14.01,2013-04-16 22:18:00,
2013-04-16 18:20:00,54.7,45.9,30.12,West,264,9.0,9.0,72,0.00,,SKC,0.00,VWS V14.01,2013-04-16 22:20:00,
2013-04-16 18:21:00,54.7,45.9,30.12,WSW,251,5.0,9.0,72,0.00,,SKC,0.00,VWS V14.01,2013-04-16 22:21:00,
2013-04-16 18:22:00,54.7,45.9,30.12,West,261,2.0,9.0,72,0.00,,SKC,0.00,VWS V14.01,2013-04-16 22:22:00,
2013-04-16 18:23:00,54.7,45.9,30.12,WSW,239,6.0,9.0,72,0.00,,SKC,0.00,VWS V14.01,2013-04-16 22:23:00,
2013-04-16 18:25:00,54.5,45.7,30.12,WSW,253,5.0,7.0,72,0.00,,SKC,0.00,VWS V14.01,2013-04-16 22:25:00,
2013-04-16 18:26:00,54.5,46.0,30.12,WSW,253,4.0,7.0,73,0.00,,SKC,0.00,VWS V14.01,2013-04-16 22:26:00,
2013-04-16 18:27:00,54.5,46.0,30.12,WSW,243,5.0,7.0,73,0.00,,SKC,0.00,VWS V14.01,2013-04-16 22:27:00,
2013-04-16 18:28:00,54.5,46.0,30.12,West,261,5.0,7.0,73,0.00,,SKC,0.00,VWS V14.01,2013-04-16 22:28:00,
2013-04-16 18:30:00,55.9,44.7,30.14,WSW,250,3.0,11.0,66,0.00,,SKC,0.00,VWS V14.01,2013-04-16 22:30:00,
2013-04-16 18:31:00,54.4,45.9,30.10,WSW,254,1.0,7.0,73,0.00,,SKC,0.00,VWS V14.01,2013-04-16 22:31:00,
2013-04-16 18:33:00,54.4,45.9,30.10,WSW,251,3.0,7.0,73,0.00,,SKC,0.00,VWS V14.01,2013-04-16 22:33:00,
2013-04-16 18:35:00,54.4,46.3,30.10,West,264,6.0,7.0,74,0.00,,SKC,0.00,VWS V14.01,2013-04-16 22:35:00,
2013-04-16 18:37:00,54.2,46.1,30.10,West,260,0.0,7.0,74,0.00,,SKC,0.00,VWS V14.01,2013-04-16 22:37:00,
2013-04-16 18:38:00,54.2,46.1,30.10,West,265,3.0,7.0,74,0.00,,SKC,0.00,VWS V14.01,2013-04-16 22:38:00,
2013-04-16 18:39:00,54.2,46.1,30.10,West,267,2.0,7.0,74,0.00,,SKC,0.00,VWS V14.01,2013-04-16 22:39:00,
2013-04-16 18:40:00,54.2,46.1,30.10,WSW,253,1.0,7.0,74,0.00,,SKC,0.00,VWS V14.01,2013-04-16 22:40:00,
2013-04-16 18:42:00,54.2,46.1,30.10,WSW,247,0.0,5.0,74,0.00,,SKC,0.00,VWS V14.01,2013-04-16 22:42:00,
2013-04-16 18:43:00,54.2,46.1,30.10,West,265,5.0,5.0,74,0.00,,SKC,0.00,VWS V14.01,2013-04-16 22:43:00,
2013-04-16 18:44:00,54.1,46.0,30.10,West,270,0.0,5.0,74,0.00,,SKC,0.00,VWS V14.01,2013-04-16 22:44:00,
2013-04-16 18:45:00,54.1,46.0,30.10,WNW,294,1.0,5.0,74,0.00,,SKC,0.00,VWS V14.01,2013-04-16 22:45:00,
2013-04-16 18:47:00,54.1,46.4,30.10,West,265,3.0,12.0,75,0.00,,SKC,0.00,VWS V14.01,2013-04-16 22:47:00,
2013-04-16 18:48:00,54.1,46.4,30.10,West,265,3.0,12.0,75,0.00,,SKC,0.00,VWS V14.01,2013-04-16 22:48:00,
2013-04-16 18:50:00,54.1,46.4,30.10,West,264,2.0,12.0,75,0.00,,SKC,0.00,VWS V14.01,2013-04-16 22:50:00,
2013-04-16 18:51:00,54.1,46.4,30.10,West,267,2.0,4.0,75,0.00,,SKC,0.00,VWS V14.01,2013-04-16 22:51:00,
2013-04-16 18:52:00,54.1,46.4,30.10,West,270,4.0,4.0,75,0.00,,SKC,0.00,VWS V14.01,2013-04-16 22:52:00,
2013-04-16 18:54:00,54.1,46.7,30.10,WSW,253,3.0,7.0,76,0.00,,SKC,0.00,VWS V14.01,2013-04-16 22:54:00,
2013-04-16 18:55:00,54.1,46.7,30.10,WSW,256,0.0,0.0,76,0.00,,SKC,0.00,VWS V14.01,2013-04-16 22:55:00,
2013-04-16 18:56:00,54.1,46.4,30.10,West,275,7.0,11.0,75,0.00,,SKC,0.00,VWS V14.01,2013-04-16 22:56:00,
2013-04-16 18:57:00,54.1,46.4,30.10,West,264,6.0,11.0,75,0.00,,SKC,0.00,VWS V14.01,2013-04-16 22:57:00,
2013-04-16 19:00:00,54.2,46.5,30.11,West,268,0.0,11.0,75,0.00,,SKC,0.00,VWS V14.01,2013-04-16 23:00:00,
2013-04-16 19:02:00,54.2,46.5,30.11,West,267,1.0,8.0,75,0.00,,SKC,0.00,VWS V14.01,2013-04-16 23:02:00,
2013-04-16 19:05:00,54.4,46.7,30.11,West,260,3.0,4.0,75,0.00,,SKC,0.00,VWS V14.01,2013-04-16 23:05:00,
2013-04-16 19:07:00,54.4,46.7,30.11,WSW,254,3.0,4.0,75,0.00,,SKC,0.00,VWS V14.01,2013-04-16 23:07:00,
2013-04-16 19:08:00,54.5,46.8,30.11,WSW,258,2.0,4.0,75,0.00,,SKC,0.00,VWS V14.01,2013-04-16 23:08:00,
2013-04-16 19:10:00,54.5,46.8,30.11,West,271,3.0,6.0,75,0.00,,SKC,0.00,VWS V14.01,2013-04-16 23:10:00,
2013-04-16 19:12:00,54.5,46.8,30.11,West,278,2.0,6.0,75,0.00,,SKC,0.00,VWS V14.01,2013-04-16 23:12:00,
2013-04-16 19:13:00,54.7,46.9,30.11,WSW,247,2.0,6.0,75,0.00,,SKC,0.00,VWS V14.01,2013-04-16 23:13:00,
2013-04-16 19:15:00,54.7,45.5,30.12,WSW,248,5.0,7.0,71,0.00,,SKC,0.00,VWS V14.01,2013-04-16 23:15:00,
2013-04-16 19:16:00,54.7,46.9,30.10,West,277,3.0,8.0,75,0.00,,SKC,0.00,VWS V14.01,2013-04-16 23:16:00,
2013-04-16 19:17:00,54.7,46.9,30.10,West,260,2.0,8.0,75,0.00,,SKC,0.00,VWS V14.01,2013-04-16 23:17:00,
2013-04-16 19:18:00,54.7,46.9,30.10,West,264,0.0,8.0,75,0.00,,SKC,0.00,VWS V14.01,2013-04-16 23:18:00,
2013-04-16 19:19:00,54.7,46.9,30.10,West,264,0.0,8.0,75,0.00,,SKC,0.00,VWS V14.01,2013-04-16 23:19:00,
2013-04-16 19:20:00,54.7,45.9,30.12,SW,234,6.0,7.0,72,0.00,,SKC,0.00,VWS V14.01,2013-04-16 23:20:00,
2013-04-16 19:21:00,54.8,47.0,30.10,WSW,254,0.0,5.0,75,0.00,,SKC,0.00,VWS V14.01,2013-04-16 23:21:00,
2013-04-16 19:22:00,54.8,47.0,30.10,WSW,256,0.0,5.0,75,0.00,,SKC,0.00,VWS V14.01,2013-04-16 23:22:00,
2013-04-16 19:23:00,54.8,47.0,30.10,WSW,258,9.0,9.0,75,0.00,,SKC,0.00,VWS V14.01,2013-04-16 23:23:00,
2013-04-16 19:24:00,54.8,47.0,30.10,West,265,7.0,9.0,75,0.00,,SKC,0.00,VWS V14.01,2013-04-16 23:24:00,
2013-04-16 19:25:00,54.5,45.7,30.12,WSW,251,7.0,10.0,72,0.00,,SKC,0.00,VWS V14.01,2013-04-16 23:25:00,
2013-04-16 19:27:00,54.8,47.0,30.10,WSW,258,3.0,8.0,75,0.00,,SKC,0.00,VWS V14.01,2013-04-16 23:27:00,
2013-04-16 19:28:00,54.8,47.0,30.10,West,260,2.0,8.0,75,0.00,,SKC,0.00,VWS V14.01,2013-04-16 23:28:00,
2013-04-16 19:29:00,54.8,47.0,30.10,WSW,258,3.0,8.0,75,0.00,,SKC,0.00,VWS V14.01,2013-04-16 23:29:00,
2013-04-16 19:30:00,54.5,46.0,30.10,West,265,5.0,8.0,73,0.00,,SKC,0.00,VWS V14.01,2013-04-16 23:30:00,
2013-04-16 19:33:00,54.8,47.0,30.09,WNW,289,5.0,5.0,75,0.00,,SKC,0.00,VWS V14.01,2013-04-16 23:33:00,
2013-04-16 19:34:00,54.8,47.0,30.09,West,261,3.0,6.0,75,0.00,,SKC,0.00,VWS V14.01,2013-04-16 23:34:00,
2013-04-16 19:35:00,54.8,47.0,30.09,West,260,5.0,6.0,75,0.00,,SKC,0.00,VWS V14.01,2013-04-16 23:35:00,
2013-04-16 19:38:00,54.8,47.0,30.09,West,263,7.0,10.0,75,0.00,,SKC,0.00,VWS V14.01,2013-04-16 23:38:00,
2013-04-16 19:39:00,54.8,47.0,30.09,West,277,5.0,10.0,75,0.00,,SKC,0.00,VWS V14.01,2013-04-16 23:39:00,
2013-04-16 19:40:00,54.2,46.1,30.10,WSW,253,1.0,7.0,74,0.00,,SKC,0.00,VWS V14.01,2013-04-16 23:40:00,
2013-04-16 19:41:00,54.8,47.0,30.09,West,268,2.0,6.0,75,0.00,,SKC,0.00,VWS V14.01,2013-04-16 23:41:00,
2013-04-16 19:44:00,54.7,46.9,30.09,WNW,292,3.0,7.0,75,0.00,,SKC,0.00,VWS V14.01,2013-04-16 23:44:00,
2013-04-16 19:45:00,54.1,46.0,30.10,WNW,292,0.0,5.0,74,0.00,,SKC,0.00,VWS V14.01,2013-04-16 23:45:00,
2013-04-16 19:47:00,54.7,46.9,30.09,West,277,10.0,13.0,75,0.00,,SKC,0.00,VWS V14.01,2013-04-16 23:47:00,
2013-04-16 19:49:00,54.7,46.9,30.09,West,263,1.0,13.0,75,0.00,,SKC,0.00,VWS V14.01,2013-04-16 23:49:00,
2013-04-16 19:50:00,54.8,47.0,30.09,WSW,258,5.0,13.0,75,0.00,,SKC,0.00,VWS V14.01,2013-04-16 23:50:00,
2013-04-16 19:52:00,54.8,47.0,30.09,West,260,0.0,5.0,75,0.00,,SKC,0.00,VWS V14.01,2013-04-16 23:52:00,
2013-04-16 19:54:00,54.8,47.0,30.09,West,264,0.0,5.0,75,0.00,,SKC,0.00,VWS V14.01,2013-04-16 23:54:00,
2013-04-16 19:55:00,54.8,47.0,30.09,West,264,0.0,5.0,75,0.00,,SKC,0.00,VWS V14.01,2013-04-16 23:55:00,
2013-04-16 19:56:00,54.8,47.0,30.09,West,265,5.0,7.0,75,0.00,,SKC,0.00,VWS V14.01,2013-04-16 23:56:00,
2013-04-16 19:57:00,54.8,47.0,30.09,West,263,0.0,7.0,75,0.00,,SKC,0.00,VWS V14.01,2013-04-16 23:57:00,
2013-04-16 19:59:00,54.8,47.0,30.09,WSW,257,5.0,8.0,75,0.00,,SKC,0.00,VWS V14.01,2013-04-16 23:59:00,
2013-04-16 20:00:00,54.8,47.0,30.09,West,261,2.0,3.0,75,0.00,,SKC,0.00,VWS V14.01,2013-04-17 00:00:00,
2013-04-16 20:02:00,54.8,47.0,30.09,WSW,251,5.0,7.0,75,0.00,,SKC,0.00,VWS V14.01,2013-04-17 00:02:00,
2013-04-16 20:03:00,54.8,47.0,30.09,West,271,3.0,7.0,75,0.00,,SKC,0.00,VWS V14.01,2013-04-17 00:03:00,
2013-04-16 20:04:00,54.8,47.0,30.09,West,268,0.0,7.0,75,0.00,,SKC,0.00,VWS V14.01,2013-04-17 00:04:00,
2013-04-16 20:05:00,54.8,47.0,30.09,West,268,0.0,7.0,75,0.00,,SKC,0.00,VWS V14.01,2013-04-17 00:05:00,
2013-04-16 20:07:00,54.8,47.0,30.09,West,267,2.0,5.0,75,0.00,,SKC,0.00,VWS V14.01,2013-04-17 00:07:00,
2013-04-16 20:08:00,54.8,47.0,30.09,West,263,7.0,7.0,75,0.00,,SKC,0.00,VWS V14.01,2013-04-17 00:08:00,
2013-04-16 20:09:00,54.7,46.9,30.09,West,270,1.0,7.0,75,0.00,,SKC,0.00,VWS V14.01,2013-04-17 00:09:00,
2013-04-16 20:10:00,54.8,47.0,30.09,West,272,0.0,7.0,75,0.00,,SKC,0.00,VWS V14.01,2013-04-17 00:10:00,
2013-04-16 20:12:00,54.7,46.9,30.09,West,263,0.0,6.0,75,0.00,,SKC,0.00,VWS V14.01,2013-04-17 00:12:00,
2013-04-16 20:14:00,54.7,46.9,30.09,West,274,2.0,8.0,75,0.00,,SKC,0.00,VWS V14.01,2013-04-17 00:14:00,
2013-04-16 20:15:00,54.7,46.9,30.09,West,264,4.0,8.0,75,0.00,,SKC,0.00,VWS V14.01,2013-04-17 00:15:00,
2013-04-16 20:16:00,54.7,46.9,30.09,West,263,5.0,7.0,75,0.00,,SKC,0.00,VWS V14.01,2013-04-17 00:16:00,
2013-04-16 20:17:00,54.7,46.9,30.09,West,260,6.0,7.0,75,0.00,,SKC,0.00,VWS V14.01,2013-04-17 00:17:00,
2013-04-16 20:20:00,54.7,46.9,30.09,West,272,3.0,8.0,75,0.00,,SKC,0.00,VWS V14.01,2013-04-17 00:20:00,
2013-04-16 20:21:00,54.7,46.9,30.09,West,274,0.0,3.0,75,0.00,,SKC,0.00,VWS V14.01,2013-04-17 00:21:00,
2013-04-16 20:22:00,54.7,47.3,30.09,West,268,3.0,5.0,76,0.00,,SKC,0.00,VWS V14.01,2013-04-17 00:22:00,
2013-04-16 20:25:00,54.7,47.3,30.09,WNW,284,3.0,3.0,76,0.00,,SKC,0.00,VWS V14.01,2013-04-17 00:25:00,
2013-04-16 20:26:00,54.7,47.3,30.09,WNW,282,1.0,3.0,76,0.00,,SKC,0.00,VWS V14.01,2013-04-17 00:26:00,
2013-04-16 20:27:00,54.7,47.3,30.09,West,260,0.0,5.0,76,0.00,,SKC,0.00,VWS V14.01,2013-04-17 00:27:00,
2013-04-16 20:28:00,54.7,47.3,30.09,West,260,0.0,5.0,76,0.00,,SKC,0.00,VWS V14.01,2013-04-17 00:28:00,
2013-04-16 20:30:00,54.8,47.0,30.09,WSW,254,3.0,8.0,75,0.00,,SKC,0.00,VWS V14.01,2013-04-17 00:30:00,
2013-04-16 20:31:00,54.7,47.3,30.10,West,265,0.0,2.0,76,0.00,,SKC,0.00,VWS V14.01,2013-04-17 00:31:00,
2013-04-16 20:32:00,54.7,47.3,30.10,WNW,294,8.0,8.0,76,0.00,,SKC,0.00,VWS V14.01,2013-04-17 00:32:00,
2013-04-16 20:34:00,54.7,47.3,30.10,WNW,287,3.0,8.0,76,0.00,,SKC,0.00,VWS V14.01,2013-04-17 00:34:00,
2013-04-16 20:35:00,54.8,47.0,30.09,West,260,5.0,6.0,75,0.00,,SKC,0.00,VWS V14.01,2013-04-17 00:35:00,
2013-04-16 20:36:00,54.7,47.3,30.10,West,264,0.0,7.0,76,0.00,,SKC,0.00,VWS V14.01,2013-04-17 00:36:00,
2013-04-16 20:37:00,54.7,47.3,30.10,West,263,0.0,7.0,76,0.00,,SKC,0.00,VWS V14.01,2013-04-17 00:37:00,
2013-04-16 20:38:00,54.7,47.3,30.10,West,265,0.0,7.0,76,0.00,,SKC,0.00,VWS V14.01,2013-04-17 00:38:00,
2013-04-16 20:40:00,54.7,47.3,30.10,WNW,287,4.0,6.0,76,0.00,,SKC,0.00,VWS V14.01,2013-04-17 00:40:00,
2013-04-16 20:42:00,54.7,47.3,30.10,WNW,282,2.0,6.0,76,0.00,,SKC,0.00,VWS V14.01,2013-04-17 00:42:00,
2013-04-16 20:43:00,54.7,47.3,30.10,WSW,256,3.0,6.0,76,0.00,,SKC,0.00,VWS V14.01,2013-04-17 00:43:00,
2013-04-16 20:45:00,54.7,47.3,30.11,NW,305,3.0,3.0,76,0.00,,SKC,0.00,VWS V14.01,2013-04-17 00:45:00,
2013-04-16 20:47:00,54.7,47.3,30.11,WSW,257,2.0,3.0,76,0.00,,SKC,0.00,VWS V14.01,2013-04-17 00:47:00,
2013-04-16 20:48:00,54.7,47.3,30.11,WSW,257,0.0,3.0,76,0.00,,SKC,0.00,VWS V14.01,2013-04-17 00:48:00,
2013-04-16 20:49:00,54.7,47.3,30.11,West,274,3.0,7.0,76,0.00,,SKC,0.00,VWS V14.01,2013-04-17 00:49:00,
2013-04-16 20:50:00,54.8,47.0,30.09,WSW,258,0.0,13.0,75,0.00,,SKC,0.00,VWS V14.01,2013-04-17 00:50:00,
2013-04-16 20:51:00,54.7,47.3,30.11,WNW,294,6.0,6.0,76,0.00,,SKC,0.00,VWS V14.01,2013-04-17 00:51:00,
2013-04-16 20:52:00,54.7,47.3,30.11,West,265,0.0,6.0,76,0.00,,SKC,0.00,VWS V14.01,2013-04-17 00:52:00,
2013-04-16 20:53:00,54.7,47.3,30.11,WNW,301,2.0,6.0,76,0.00,,SKC,0.00,VWS V14.01,2013-04-17 00:53:00,
2013-04-16 20:54:00,54.7,47.3,30.11,NW,306,0.0,6.0,76,0.00,,SKC,0.00,VWS V14.01,2013-04-17 00:54:00,
2013-04-16 20:55:00,54.8,47.0,30.09,West,264,0.0,5.0,75,0.00,,SKC,0.00,VWS V14.01,2013-04-17 00:55:00,
2013-04-16 20:58:00,54.7,47.3,30.11,WNW,282,2.0,5.0,76,0.00,,SKC,0.00,VWS V14.01,2013-04-17 00:58:00,
2013-04-16 20:59:00,54.7,47.3,30.11,WSW,258,3.0,8.0,76,0.00,,SKC,0.00,VWS V14.01,2013-04-17 00:59:00,
2013-04-16 21:00:00,54.8,47.0,30.09,West,261,3.0,8.0,75,0.00,,SKC,0.00,VWS V14.01,2013-04-17 01:00:00,
2013-04-16 21:03:00,54.7,47.3,30.11,West,263,5.0,10.0,76,0.00,,SKC,0.00,VWS V14.01,2013-04-17 01:03:00,
2013-04-16 21:04:00,54.7,47.3,30.11,West,267,3.0,10.0,76,0.00,,SKC,0.00,VWS V14.01,2013-04-17 01:04:00,
2013-04-16 21:05:00,54.8,47.0,30.09,West,268,0.0,7.0,75,0.00,,SKC,0.00,VWS V14.01,2013-04-17 01:05:00,
2013-04-16 21:06:00,54.7,47.3,30.11,West,263,1.0,7.0,76,0.00,,SKC,0.00,VWS V14.01,2013-04-17 01:06:00,
2013-04-16 21:08:00,54.7,47.3,30.11,West,264,2.0,8.0,76,0.00,,SKC,0.00,VWS V14.01,2013-04-17 01:08:00,
2013-04-16 21:09:00,54.7,47.3,30.11,WSW,258,4.0,11.0,76,0.00,,SKC,0.00,VWS V14.01,2013-04-17 01:09:00,
2013-04-16 21:10:00,54.8,47.0,30.09,West,272,0.0,7.0,75,0.00,,SKC,0.00,VWS V14.01,2013-04-17 01:10:00,
2013-04-16 21:11:00,54.7,47.3,30.11,West,264,2.0,2.0,76,0.00,,SKC,0.00,VWS V14.01,2013-04-17 01:11:00,
2013-04-16 21:13:00,54.7,47.3,30.11,West,261,0.0,3.0,76,0.00,,SKC,0.00,VWS V14.01,2013-04-17 01:13:00,
2013-04-16 21:15:00,54.7,47.3,30.10,WSW,258,3.0,3.0,76,0.00,,SKC,0.00,VWS V14.01,2013-04-17 01:15:00,
2013-04-16 21:17:00,54.7,47.3,30.10,West,263,3.0,7.0,76,0.00,,SKC,0.00,VWS V14.01,2013-04-17 01:17:00,
2013-04-16 21:18:00,54.7,47.3,30.10,WNW,288,3.0,7.0,76,0.00,,SKC,0.00,VWS V14.01,2013-04-17 01:18:00,
2013-04-16 21:19:00,54.7,47.3,30.10,West,271,1.0,7.0,76,0.00,,SKC,0.00,VWS V14.01,2013-04-17 01:19:00,
2013-04-16 21:20:00,54.7,47.3,30.10,West,267,1.0,7.0,76,0.00,,SKC,0.00,VWS V14.01,2013-04-17 01:20:00,
2013-04-16 21:21:00,54.7,47.3,30.10,West,270,5.0,5.0,76,0.00,,SKC,0.00,VWS V14.01,2013-04-17 01:21:00,
2013-04-16 21:22:00,54.7,47.3,30.10,NW,305,1.0,5.0,76,0.00,,SKC,0.00,VWS V14.01,2013-04-17 01:22:00,
2013-04-16 21:24:00,54.7,47.3,30.10,WNW,287,0.0,5.0,76,0.00,,SKC,0.00,VWS V14.01,2013-04-17 01:24:00,
2013-04-16 21:25:00,54.7,47.3,30.10,West,272,1.0,3.0,76,0.00,,SKC,0.00,VWS V14.01,2013-04-17 01:25:00,
2013-04-16 21:26:00,54.7,47.3,30.10,West,272,0.0,3.0,76,0.00,,SKC,0.00,VWS V14.01,2013-04-17 01:26:00,
2013-04-16 21:27:00,54.7,47.3,30.10,West,261,1.0,5.0,76,0.00,,SKC,0.00,VWS V14.01,2013-04-17 01:27:00,
2013-04-16 21:28:00,54.7,47.3,30.10,West,260,3.0,5.0,76,0.00,,SKC,0.00,VWS V14.01,2013-04-17 01:28:00,
2013-04-16 21:29:00,54.7,47.3,30.10,West,275,6.0,6.0,76,0.00,,SKC,0.00,VWS V14.01,2013-04-17 01:29:00,
2013-04-16 21:30:00,54.7,47.3,30.10,West,265,5.0,5.0,76,0.00,,SKC,0.00,VWS V14.01,2013-04-17 01:30:00,
2013-04-16 21:31:00,54.7,47.3,30.10,WSW,254,6.0,6.0,76,0.00,,SKC,0.00,VWS V14.01,2013-04-17 01:31:00,
2013-04-16 21:32:00,54.7,47.3,30.10,WSW,257,4.0,6.0,76,0.00,,SKC,0.00,VWS V14.01,2013-04-17 01:32:00,
2013-04-16 21:33:00,54.7,47.3,30.10,WSW,258,3.0,6.0,76,0.00,,SKC,0.00,VWS V14.01,2013-04-17 01:33:00,
2013-04-16 21:34:00,54.7,47.3,30.10,WSW,257,0.0,6.0,76,0.00,,SKC,0.00,VWS V14.01,2013-04-17 01:34:00,
2013-04-16 21:35:00,54.7,47.3,30.10,West,265,2.0,3.0,76,0.00,,SKC,0.00,VWS V14.01,2013-04-17 01:35:00,
2013-04-16 21:36:00,54.7,47.3,30.10,WSW,256,4.0,4.0,76,0.00,,SKC,0.00,VWS V14.01,2013-04-17 01:36:00,
2013-04-16 21:37:00,54.7,47.3,30.10,West,260,2.0,7.0,76,0.00,,SKC,0.00,VWS V14.01,2013-04-17 01:37:00,
2013-04-16 21:39:00,54.7,47.3,30.10,WNW,292,5.0,7.0,76,0.00,,SKC,0.00,VWS V14.01,2013-04-17 01:39:00,
2013-04-16 21:40:00,54.7,47.3,30.10,WNW,295,0.0,7.0,76,0.00,,SKC,0.00,VWS V14.01,2013-04-17 01:40:00,
2013-04-16 21:41:00,54.7,47.3,30.10,WSW,258,3.0,4.0,76,0.00,,SKC,0.00,VWS V14.01,2013-04-17 01:41:00,
2013-04-16 21:42:00,54.7,47.3,30.10,West,263,0.0,4.0,76,0.00,,SKC,0.00,VWS V14.01,2013-04-17 01:42:00,
2013-04-16 21:45:00,54.7,47.3,30.09,West,261,0.0,8.0,76,0.00,,SKC,0.00,VWS V14.01,2013-04-17 01:45:00,
2013-04-16 21:46:00,54.7,47.3,30.09,West,261,0.0,2.0,76,0.00,,SKC,0.00,VWS V14.01,2013-04-17 01:46:00,
2013-04-16 21:47:00,54.7,47.3,30.09,West,271,0.0,3.0,76,0.00,,SKC,0.00,VWS V14.01,2013-04-17 01:47:00,
2013-04-16 21:50:00,54.7,47.3,30.09,WSW,256,2.0,2.0,76,0.00,,SKC,0.00,VWS V14.01,2013-04-17 01:50:00,
2013-04-16 21:51:00,54.7,47.3,30.09,West,275,5.0,7.0,76,0.00,,SKC,0.00,VWS V14.01,2013-04-17 01:51:00,
2013-04-16 21:52:00,54.8,47.4,30.09,WSW,254,1.0,7.0,76,0.00,,SKC,0.00,VWS V14.01,2013-04-17 01:52:00,
2013-04-16 21:53:00,54.8,47.4,30.09,West,271,8.0,8.0,76,0.00,,SKC,0.00,VWS V14.01,2013-04-17 01:53:00,
2013-04-16 21:55:00,54.7,47.3,30.11,NW,308,0.0,6.0,76,0.00,,SKC,0.00,VWS V14.01,2013-04-17 01:55:00,
2013-04-16 21:56:00,54.8,47.4,30.09,WNW,282,0.0,5.0,76,0.00,,SKC,0.00,VWS V14.01,2013-04-17 01:56:00,
2013-04-16 21:57:00,54.8,47.4,30.09,West,271,0.0,5.0,76,0.00,,SKC,0.00,VWS V14.01,2013-04-17 01:57:00,
2013-04-16 21:58:00,54.8,47.4,30.09,West,268,0.0,5.0,76,0.00,,SKC,0.00,VWS V14.01,2013-04-17 01:58:00,
2013-04-16 22:00:00,54.7,47.3,30.11,West,265,2.0,8.0,76,0.00,,SKC,0.00,VWS V14.01,2013-04-17 02:00:00,
2013-04-16 22:01:00,55.0,47.2,30.07,West,261,4.0,6.0,75,0.00,,SKC,0.00,VWS V14.01,2013-04-17 02:01:00,
2013-04-16 22:03:00,55.0,47.2,30.07,WSW,243,3.0,7.0,75,0.00,,SKC,0.00,VWS V14.01,2013-04-17 02:03:00,
2013-04-16 22:04:00,55.0,47.2,30.07,West,263,3.0,7.0,75,0.00,,SKC,0.00,VWS V14.01,2013-04-17 02:04:00,
2013-04-16 22:05:00,54.7,47.3,30.11,West,261,4.0,10.0,76,0.00,,SKC,0.00,VWS V14.01,2013-04-17 02:05:00,
2013-04-16 22:07:00,55.0,47.2,30.07,West,267,8.0,8.0,75,0.00,,SKC,0.00,VWS V14.01,2013-04-17 02:07:00,
2013-04-16 22:08:00,55.0,47.2,30.07,WSW,257,3.0,10.0,75,0.00,,SKC,0.00,VWS V14.01,2013-04-17 02:08:00,
2013-04-16 22:09:00,55.0,47.2,30.07,West,270,11.0,16.0,75,0.00,,SKC,0.00,VWS V14.01,2013-04-17 02:09:00,
2013-04-16 22:10:00,54.7,47.3,30.11,West,261,0.0,11.0,76,0.00,,SKC,0.00,VWS V14.01,2013-04-17 02:10:00,
2013-04-16 22:12:00,55.0,47.2,30.07,West,278,6.0,12.0,75,0.00,,SKC,0.00,VWS V14.01,2013-04-17 02:12:00,
2013-04-16 22:13:00,55.0,47.2,30.07,West,264,7.0,12.0,75,0.00,,SKC,0.00,VWS V14.01,2013-04-17 02:13:00,
2013-04-16 22:14:00,55.0,47.2,30.06,West,261,8.0,12.0,75,0.00,,SKC,0.00,VWS V14.01,2013-04-17 02:14:00,
2013-04-16 22:15:00,54.7,47.3,30.10,WSW,251,6.0,6.0,76,0.00,,SKC,0.00,VWS V14.01,2013-04-17 02:15:00,
2013-04-16 22:18:00,55.0,47.2,30.06,West,271,7.0,10.0,75,0.00,,SKC,0.00,VWS V14.01,2013-04-17 02:18:00,
2013-04-16 22:20:00,55.0,47.2,30.06,West,268,3.0,11.0,75,0.00,,SKC,0.00,VWS V14.01,2013-04-17 02:20:00,
2013-04-16 22:23:00,55.0,47.2,30.06,West,261,9.0,12.0,75,0.00,,SKC,0.00,VWS V14.01,2013-04-17 02:23:00,
2013-04-16 22:24:00,55.1,47.3,30.06,West,263,3.0,12.0,75,0.00,,SKC,0.00,VWS V14.01,2013-04-17 02:24:00,
2013-04-16 22:25:00,55.1,47.3,30.06,WSW,257,3.0,3.0,75,0.00,,SKC,0.00,VWS V14.01,2013-04-17 02:25:00,
2013-04-16 22:26:00,55.1,47.3,30.06,West,260,0.0,3.0,75,0.00,,SKC,0.00,VWS V14.01,2013-04-17 02:26:00,
2013-04-16 22:28:00,55.1,47.3,30.06,West,264,2.0,10.0,75,0.00,,SKC,0.00,VWS V14.01,2013-04-17 02:28:00,
2013-04-16 22:29:00,55.1,47.3,30.06,West,264,2.0,10.0,75,0.00,,SKC,0.00,VWS V14.01,2013-04-17 02:29:00,
2013-04-16 22:30:00,55.1,47.3,30.07,West,260,3.0,3.0,75,0.00,,SKC,0.00,VWS V14.01,2013-04-17 02:30:00,
2013-04-16 22:31:00,55.1,47.3,30.07,WSW,246,4.0,5.0,75,0.00,,SKC,0.00,VWS V14.01,2013-04-17 02:31:00,
2013-04-16 22:34:00,55.1,47.3,30.07,West,260,1.0,6.0,75,0.00,,SKC,0.00,VWS V14.01,2013-04-17 02:34:00,
2013-04-16 22:35:00,55.0,47.2,30.07,West,267,2.0,3.0,75,0.00,,SKC,0.00,VWS V14.01,2013-04-17 02:35:00,
2013-04-16 22:37:00,55.0,47.2,30.07,WSW,248,5.0,6.0,75,0.00,,SKC,0.00,VWS V14.01,2013-04-17 02:37:00,
2013-04-16 22:39:00,55.0,47.2,30.07,WSW,258,0.0,6.0,75,0.00,,SKC,0.00,VWS V14.01,2013-04-17 02:39:00,
2013-04-16 22:40:00,55.0,47.2,30.07,West,263,0.0,0.0,75,0.00,,SKC,0.00,VWS V14.01,2013-04-17 02:40:00,
2013-04-16 22:41:00,55.0,47.2,30.07,WSW,254,1.0,3.0,75,0.00,,SKC,0.00,VWS V14.01,2013-04-17 02:41:00,
2013-04-16 22:42:00,55.0,47.2,30.07,WSW,257,5.0,7.0,75,0.00,,SKC,0.00,VWS V14.01,2013-04-17 02:42:00,
2013-04-16 22:45:00,55.0,47.2,30.06,WSW,258,5.0,8.0,75,0.00,,SKC,0.00,VWS V14.01,2013-04-17 02:45:00,
2013-04-16 22:46:00,55.0,47.2,30.06,West,277,4.0,6.0,75,0.00,,SKC,0.00,VWS V14.01,2013-04-17 02:46:00,
2013-04-16 22:47:00,55.0,47.2,30.06,West,281,0.0,6.0,75,0.00,,SKC,0.00,VWS V14.01,2013-04-17 02:47:00,
2013-04-16 22:50:00,54.7,47.3,30.09,West,265,0.0,7.0,76,0.00,,SKC,0.00,VWS V14.01,2013-04-17 02:50:00,
2013-04-16 22:51:00,55.0,47.6,30.06,WSW,254,0.0,6.0,76,0.00,,SKC,0.00,VWS V14.01,2013-04-17 02:51:00,
2013-04-16 22:52:00,55.0,47.6,30.06,WSW,256,5.0,7.0,76,0.00,,SKC,0.00,VWS V14.01,2013-04-17 02:52:00,
2013-04-16 22:55:00,54.8,47.4,30.09,West,263,2.0,8.0,76,0.00,,SKC,0.00,VWS V14.01,2013-04-17 02:55:00,
2013-04-16 22:56:00,55.0,47.6,30.06,WSW,257,5.0,10.0,76,0.00,,SKC,0.00,VWS V14.01,2013-04-17 02:56:00,
2013-04-16 22:57:00,55.0,47.6,30.06,West,265,1.0,10.0,76,0.00,,SKC,0.00,VWS V14.01,2013-04-17 02:57:00,
2013-04-16 23:00:00,54.8,47.4,30.07,West,280,4.0,11.0,76,0.00,,SKC,0.00,VWS V14.01,2013-04-17 03:00:00,
2013-04-16 23:01:00,55.0,47.6,30.06,WSW,254,2.0,7.0,76,0.00,,SKC,0.00,VWS V14.01,2013-04-17 03:01:00,
2013-04-16 23:02:00,55.0,47.6,30.06,WSW,256,5.0,7.0,76,0.00,,SKC,0.00,VWS V14.01,2013-04-17 03:02:00,
2013-04-16 23:04:00,55.0,47.6,30.06,West,275,4.0,7.0,76,0.00,,SKC,0.00,VWS V14.01,2013-04-17 03:04:00,
2013-04-16 23:05:00,55.0,47.2,30.07,West,264,0.0,7.0,75,0.00,,SKC,0.00,VWS V14.01,2013-04-17 03:05:00,
2013-04-16 23:07:00,55.0,47.6,30.06,West,274,5.0,7.0,76,0.00,,SKC,0.00,VWS V14.01,2013-04-17 03:07:00,
2013-04-16 23:08:00,55.0,47.6,30.06,WSW,254,0.0,8.0,76,0.00,,SKC,0.00,VWS V14.01,2013-04-17 03:08:00,
2013-04-16 23:09:00,55.0,47.6,30.06,WNW,291,4.0,8.0,76,0.00,,SKC,0.00,VWS V14.01,2013-04-17 03:09:00,
2013-04-16 23:10:00,55.0,47.2,30.07,West,265,5.0,16.0,75,0.00,,SKC,0.00,VWS V14.01,2013-04-17 03:10:00,
2013-04-16 23:12:00,55.0,47.6,30.06,West,261,1.0,7.0,76,0.00,,SKC,0.00,VWS V14.01,2013-04-17 03:12:00,
2013-04-16 23:13:00,55.0,47.6,30.06,West,261,0.0,7.0,76,0.00,,SKC,0.00,VWS V14.01,2013-04-17 03:13:00,
2013-04-16 23:14:00,55.0,47.6,30.06,West,261,0.0,7.0,76,0.00,,SKC,0.00,VWS V14.01,2013-04-17 03:14:00,
2013-04-16 23:15:00,55.0,47.2,30.06,West,272,1.0,12.0,75,0.00,,SKC,0.00,VWS V14.01,2013-04-17 03:15:00,
2013-04-16 23:17:00,55.0,47.6,30.06,WSW,257,7.0,10.0,76,0.00,,SKC,0.00,VWS V14.01,2013-04-17 03:17:00,
2013-04-16 23:18:00,55.0,47.6,30.06,WNW,296,6.0,10.0,76,0.00,,SKC,0.00,VWS V14.01,2013-04-17 03:18:00,
2013-04-16 23:19:00,55.0,47.6,30.06,West,265,2.0,10.0,76,0.00,,SKC,0.00,VWS V14.01,2013-04-17 03:19:00,
2013-04-16 23:20:00,55.0,47.2,30.06,West,267,2.0,11.0,75,0.00,,SKC,0.00,VWS V14.01,2013-04-17 03:20:00,
2013-04-16 23:23:00,54.8,47.4,30.06,West,267,0.0,0.0,76,0.00,,SKC,0.00,VWS V14.01,2013-04-17 03:23:00,
2013-04-16 23:24:00,54.8,47.4,30.06,WSW,248,4.0,6.0,76,0.00,,SKC,0.00,VWS V14.01,2013-04-17 03:24:00,
2013-04-16 23:25:00,54.8,47.4,30.06,WSW,250,2.0,2.0,76,0.00,,SKC,0.00,VWS V14.01,2013-04-17 03:25:00,
2013-04-16 23:28:00,55.0,47.6,30.06,West,264,2.0,7.0,76,0.00,,SKC,0.00,VWS V14.01,2013-04-17 03:28:00,
2013-04-16 23:29:00,55.0,47.6,30.06,West,261,3.0,7.0,76,0.00,,SKC,0.00,VWS V14.01,2013-04-17 03:29:00,
2013-04-16 23:30:00,55.0,47.6,30.06,West,268,2.0,7.0,76,0.00,,SKC,0.00,VWS V14.01,2013-04-17 03:30:00,
2013-04-16 23:31:00,55.0,47.6,30.06,West,264,0.0,6.0,76,0.00,,SKC,0.00,VWS V14.01,2013-04-17 03:31:00,
2013-04-16 23:33:00,55.0,47.6,30.06,WSW,256,4.0,7.0,76,0.00,,SKC,0.00,VWS V14.01,2013-04-17 03:33:00,
2013-04-16 23:35:00,55.0,47.6,30.06,WNW,291,2.0,8.0,76,0.00,,SKC,0.00,VWS V14.01,2013-04-17 03:35:00,
2013-04-16 23:37:00,55.0,47.6,30.06,West,274,3.0,7.0,76,0.00,,SKC,0.00,VWS V14.01,2013-04-17 03:37:00,
2013-04-16 23:39:00,55.0,47.6,30.06,WSW,256,4.0,7.0,76,0.00,,SKC,0.00,VWS V14.01,2013-04-17 03:39:00,
2013-04-16 23:40:00,55.0,47.6,30.06,West,263,3.0,7.0,76,0.00,,SKC,0.00,VWS V14.01,2013-04-17 03:40:00,
2013-04-16 23:42:00,55.0,47.9,30.06,West,263,3.0,8.0,77,0.00,,SKC,0.00,VWS V14.01,2013-04-17 03:42:00,
2013-04-16 23:43:00,55.0,47.9,30.06,West,264,0.0,8.0,77,0.00,,SKC,0.00,VWS V14.01,2013-04-17 03:43:00,
2013-04-16 23:44:00,55.0,47.9,30.06,West,264,6.0,8.0,77,0.00,,SKC,0.00,VWS V14.01,2013-04-17 03:44:00,
2013-04-16 23:45:00,55.1,48.0,30.05,WNW,294,10.0,10.0,77,0.00,,SKC,0.00,VWS V14.01,2013-04-17 03:45:00,
2013-04-16 23:47:00,55.1,48.0,30.05,WSW,258,3.0,10.0,77,0.00,,SKC,0.00,VWS V14.01,2013-04-17 03:47:00,
2013-04-16 23:48:00,55.1,48.0,30.05,West,267,2.0,10.0,77,0.00,,SKC,0.00,VWS V14.01,2013-04-17 03:48:00,
2013-04-16 23:50:00,55.1,48.0,30.05,West,268,3.0,10.0,77,0.00,,SKC,0.00,VWS V14.01,2013-04-17 03:50:00,
2013-04-16 23:52:00,55.1,48.0,30.05,WSW,258,6.0,7.0,77,0.00,,SKC,0.00,VWS V14.01,2013-04-17 03:52:00,
2013-04-16 23:53:00,55.1,48.0,30.05,West,265,0.0,7.0,77,0.00,,SKC,0.00,VWS V14.01,2013-04-17 03:53:00,
2013-04-16 23:55:00,55.1,48.0,30.05,WSW,258,7.0,7.0,77,0.00,,SKC,0.00,VWS V14.01,2013-04-17 03:55:00,
2013-04-16 23:56:00,55.1,48.0,30.05,West,270,4.0,7.0,77,0.00,,SKC,0.00,VWS V14.01,2013-04-17 03:56:00,
2013-04-16 23:58:00,55.1,48.0,30.05,West,270,3.0,7.0,77,0.00,,SKC,0.00,VWS V14.01,2013-04-17 03:58:00,
2013-04-16 23:59:00,55.1,48.0,30.05,WNW,295,0.0,7.0,77,0.00,,SKC,0.00,VWS V14.01,2013-04-17 03:59:00,